GEFSMW_prec_meanprecacc_210.txt.gz
Total_Precipitation_Accumulation
0.22 0.20 0.20 0.23 0.26 0.29 0.35 0.41 0.48 0.64 0.77 0.85 0.95 1.12 1.29 1.47 1.62 1.74 1.64 1.50 1.46 1.63 1.75 1.69 1.77 1.79 1.67 1.67 1.72 1.77 1.71 1.45 1.32 1.40 1.30 1.03 0.80 0.87 0.86 0.83 0.88 0.94 1.04
0.16 0.12 0.10 0.12 0.16 0.18 0.22 0.28 0.36 0.46 0.59 0.74 0.97 1.17 1.46 1.55 1.64 1.78 1.82 1.76 1.70 1.85 1.89 1.98 2.05 2.09 2.08 2.04 1.93 2.00 2.10 1.83 1.62 1.74 2.03 1.63 1.22 0.88 0.71 0.80 0.84 0.94 1.18
0.12 0.08 0.08 0.08 0.12 0.13 0.15 0.21 0.34 0.47 0.68 0.91 1.23 1.51 1.74 1.82 1.87 1.82 1.89 1.97 2.02 2.08 2.11 2.17 2.23 2.24 2.10 2.09 2.18 2.27 2.60 2.41 2.06 1.88 2.14 1.95 1.62 1.32 0.91 0.84 0.89 0.97 1.14
0.12 0.10 0.10 0.10 0.10 0.13 0.18 0.29 0.46 0.65 0.91 1.25 1.60 1.84 2.06 2.16 2.00 1.98 2.02 2.03 1.98 2.01 2.13 2.14 2.14 2.11 2.05 2.12 2.18 2.21 2.59 2.77 2.48 2.16 1.83 1.62 1.59 1.66 1.36 1.00 0.95 1.03 1.06
0.18 0.16 0.18 0.18 0.21 0.27 0.34 0.50 0.74 1.04 1.31 1.54 1.72 1.94 2.07 2.09 2.06 2.02 2.01 1.94 1.91 1.88 1.91 1.93 2.02 2.05 2.10 2.15 2.31 2.41 2.63 2.66 2.67 2.49 2.31 2.10 1.81 1.47 1.50 1.43 1.18 1.14 1.06
0.23 0.24 0.26 0.32 0.39 0.44 0.57 0.74 0.92 1.21 1.39 1.50 1.62 1.80 1.95 2.00 2.01 2.00 1.99 1.98 1.96 1.86 1.79 1.76 1.83 1.95 2.11 2.17 2.25 2.39 2.62 2.72 2.80 2.74 2.48 2.39 2.22 1.93 1.80 1.55 1.40 1.40 1.21
0.31 0.31 0.41 0.55 0.63 0.67 0.75 0.89 0.98 1.15 1.26 1.31 1.39 1.53 1.60 1.67 1.72 1.71 1.68 1.62 1.58 1.57 1.59 1.67 1.76 1.89 2.01 2.10 2.21 2.35 2.39 2.50 2.74 2.75 2.59 2.38 2.17 2.14 2.04 1.92 1.61 1.44 1.27
0.47 0.57 0.71 0.80 0.87 0.87 0.84 0.86 0.99 1.04 1.02 1.04 1.05 1.17 1.26 1.32 1.39 1.39 1.39 1.42 1.46 1.46 1.40 1.44 1.54 1.77 1.97 2.05 2.15 2.16 2.13 2.18 2.37 2.37 2.44 2.41 2.12 2.06 1.97 1.96 2.04 1.76 1.57
0.72 0.93 1.11 1.22 1.29 1.20 1.01 0.87 0.88 0.87 0.85 0.90 0.94 0.98 1.07 1.12 1.15 1.18 1.14 1.24 1.28 1.27 1.21 1.23 1.27 1.40 1.63 1.89 2.05 1.99 1.91 1.87 2.03 2.10 2.19 2.30 2.31 2.23 2.13 2.10 2.15 2.09 1.84
1.16 1.40 1.64 1.76 1.73 1.53 1.26 0.98 0.82 0.79 0.76 0.79 0.84 0.89 0.93 0.95 0.94 0.98 0.92 0.98 1.08 1.07 1.07 1.07 1.12 1.25 1.36 1.57 1.80 1.90 1.84 1.81 1.86 1.97 2.10 2.23 2.33 2.38 2.19 2.15 2.12 1.98 1.88
1.58 1.73 1.87 1.91 1.65 1.48 1.24 0.97 0.82 0.84 0.86 0.85 0.84 0.84 0.82 0.80 0.79 0.78 0.75 0.78 0.85 0.84 0.87 1.04 1.09 1.16 1.24 1.41 1.67 1.85 1.86 1.78 1.79 1.78 1.86 2.03 2.12 2.34 2.31 2.23 2.12 1.99 1.82
1.33 1.40 1.46 1.41 1.36 1.32 1.15 0.99 0.91 0.91 0.95 0.94 0.94 0.87 0.79 0.75 0.74 0.72 0.63 0.63 0.61 0.60 0.71 0.84 0.89 0.93 0.98 1.17 1.46 1.66 1.69 1.66 1.57 1.56 1.68 1.91 2.08 2.29 2.39 2.34 2.20 2.11 1.98
1.15 1.15 1.15 1.16 1.18 1.16 1.04 1.03 1.00 1.00 1.01 0.98 0.88 0.80 0.73 0.65 0.60 0.53 0.49 0.55 0.57 0.63 0.75 0.84 0.89 0.91 0.97 1.00 1.10 1.26 1.38 1.36 1.31 1.34 1.41 1.47 1.67 1.96 2.14 2.16 2.18 2.21 2.19
0.92 0.91 0.95 1.00 1.08 1.05 1.02 0.97 0.92 0.96 1.07 1.12 1.01 0.90 0.79 0.69 0.63 0.54 0.50 0.49 0.52 0.59 0.68 0.75 0.81 0.89 0.94 0.95 0.95 0.97 1.04 1.05 1.10 1.16 1.21 1.26 1.30 1.53 1.72 1.81 2.00 2.23 2.24
0.62 0.65 0.69 0.69 0.66 0.62 0.66 0.69 0.75 0.85 1.01 1.14 1.13 0.98 0.80 0.67 0.60 0.56 0.50 0.48 0.49 0.50 0.57 0.64 0.68 0.74 0.83 0.92 0.94 0.81 0.77 0.83 0.94 0.97 0.95 0.97 1.04 1.18 1.28 1.36 1.72 2.06 2.24
0.39 0.37 0.37 0.38 0.37 0.34 0.31 0.31 0.38 0.53 0.79 1.04 1.02 0.80 0.63 0.51 0.46 0.47 0.47 0.43 0.42 0.47 0.52 0.52 0.56 0.67 0.71 0.85 0.84 0.67 0.64 0.67 0.77 0.86 0.86 0.76 0.75 0.80 0.87 0.95 1.13 1.41 1.66
0.28 0.27 0.25 0.24 0.24 0.22 0.21 0.22 0.30 0.42 0.59 0.70 0.67 0.57 0.46 0.44 0.47 0.50 0.45 0.43 0.44 0.44 0.46 0.46 0.47 0.53 0.67 0.72 0.57 0.55 0.57 0.63 0.69 0.75 0.81 0.74 0.64 0.71 0.75 0.85 0.92 0.94 1.02
0.19 0.19 0.18 0.17 0.19 0.20 0.23 0.27 0.31 0.36 0.41 0.45 0.46 0.40 0.37 0.39 0.42 0.44 0.43 0.50 0.55 0.52 0.51 0.52 0.52 0.51 0.58 0.57 0.47 0.50 0.52 0.57 0.62 0.70 0.79 0.85 0.77 0.77 0.87 0.87 0.90 0.86 0.83
0.11 0.11 0.10 0.10 0.10 0.10 0.11 0.12 0.14 0.15 0.16 0.16 0.18 0.17 0.17 0.19 0.21 0.23 0.30 0.41 0.47 0.50 0.53 0.56 0.57 0.52 0.50 0.51 0.44 0.45 0.52 0.56 0.61 0.62 0.68 0.76 0.74 0.88 0.96 0.97 1.10 1.08 0.96
0.08 0.08 0.07 0.08 0.08 0.08 0.07 0.05 0.04 0.05 0.05 0.05 0.05 0.07 0.07 0.08 0.09 0.12 0.16 0.23 0.24 0.29 0.39 0.42 0.45 0.48 0.48 0.59 0.48 0.48 0.51 0.60 0.70 0.71 0.69 0.82 0.82 0.89 0.88 0.87 1.10 1.12 1.00
0.08 0.08 0.08 0.08 0.09 0.09 0.08 0.07 0.05 0.04 0.04 0.05 0.06 0.06 0.06 0.06 0.07 0.08 0.10 0.14 0.15 0.20 0.23 0.27 0.33 0.41 0.49 0.60 0.58 0.62 0.63 0.69 0.81 0.79 0.70 0.65 0.76 0.65 0.72 0.76 0.81 1.02 1.01
0.08 0.08 0.07 0.08 0.09 0.08 0.08 0.08 0.08 0.06 0.05 0.06 0.06 0.05 0.06 0.07 0.07 0.07 0.09 0.11 0.12 0.14 0.16 0.17 0.22 0.31 0.38 0.46 0.52 0.54 0.59 0.66 0.75 0.80 0.68 0.65 0.72 0.57 0.55 0.57 0.68 0.84 0.95
0.06 0.07 0.08 0.08 0.08 0.08 0.08 0.08 0.08 0.08 0.07 0.06 0.05 0.06 0.07 0.06 0.07 0.08 0.10 0.10 0.11 0.13 0.15 0.18 0.25 0.32 0.38 0.43 0.41 0.38 0.41 0.49 0.58 0.62 0.66 0.65 0.61 0.55 0.50 0.50 0.57 0.65 0.75
0.06 0.06 0.08 0.08 0.09 0.09 0.09 0.10 0.09 0.07 0.06 0.06 0.06 0.06 0.07 0.06 0.07 0.08 0.09 0.11 0.11 0.13 0.17 0.23 0.28 0.34 0.37 0.40 0.38 0.41 0.44 0.44 0.46 0.46 0.47 0.50 0.53 0.56 0.55 0.51 0.55 0.61 0.71
0.08 0.10 0.11 0.10 0.09 0.11 0.11 0.13 0.13 0.09 0.06 0.05 0.06 0.06 0.06 0.06 0.06 0.06 0.06 0.08 0.09 0.12 0.19 0.26 0.31 0.32 0.31 0.28 0.29 0.40 0.50 0.56 0.62 0.67 0.61 0.62 0.63 0.60 0.55 0.52 0.52 0.57 0.63
0.07 0.09 0.10 0.10 0.09 0.09 0.11 0.12 0.14 0.14 0.13 0.09 0.06 0.05 0.05 0.06 0.07 0.07 0.07 0.07 0.09 0.13 0.16 0.16 0.19 0.20 0.20 0.21 0.23 0.30 0.40 0.50 0.62 0.78 0.81 0.84 0.86 0.80 0.70 0.61 0.53 0.48 0.50

GEFSMW_prec_meanprecacc_216.txt.gz
Total_Precipitation_Accumulation
0.23 0.21 0.21 0.24 0.26 0.30 0.36 0.43 0.49 0.66 0.79 0.85 0.95 1.13 1.30 1.47 1.62 1.74 1.64 1.50 1.46 1.63 1.75 1.69 1.77 1.80 1.67 1.68 1.72 1.79 1.73 1.47 1.33 1.41 1.31 1.04 0.81 0.87 0.86 0.83 0.88 0.94 1.05
0.17 0.13 0.11 0.13 0.16 0.19 0.23 0.29 0.37 0.47 0.59 0.75 0.98 1.18 1.47 1.56 1.64 1.78 1.82 1.76 1.70 1.85 1.89 1.98 2.06 2.10 2.09 2.05 1.94 2.02 2.11 1.85 1.63 1.75 2.04 1.64 1.23 0.88 0.71 0.80 0.85 0.95 1.18
0.12 0.09 0.09 0.08 0.13 0.14 0.15 0.22 0.34 0.47 0.68 0.92 1.23 1.52 1.74 1.82 1.87 1.82 1.89 1.97 2.02 2.08 2.11 2.17 2.24 2.25 2.11 2.10 2.19 2.28 2.61 2.42 2.07 1.89 2.15 1.95 1.62 1.32 0.91 0.84 0.89 0.98 1.15
0.13 0.10 0.11 0.10 0.11 0.14 0.18 0.29 0.47 0.66 0.92 1.26 1.61 1.84 2.06 2.16 2.01 1.99 2.02 2.03 1.99 2.02 2.13 2.14 2.14 2.11 2.06 2.14 2.19 2.22 2.60 2.78 2.49 2.17 1.83 1.62 1.60 1.66 1.36 1.00 0.96 1.04 1.06
0.18 0.16 0.18 0.18 0.21 0.28 0.34 0.50 0.75 1.04 1.32 1.55 1.74 1.94 2.07 2.09 2.07 2.02 2.01 1.95 1.92 1.88 1.92 1.94 2.03 2.06 2.10 2.16 2.33 2.43 2.64 2.66 2.67 2.49 2.31 2.10 1.81 1.47 1.51 1.43 1.18 1.15 1.07
0.23 0.24 0.27 0.33 0.40 0.44 0.57 0.75 0.92 1.21 1.39 1.51 1.62 1.81 1.96 2.01 2.02 2.00 2.00 1.99 1.97 1.87 1.80 1.77 1.83 1.95 2.12 2.18 2.27 2.41 2.63 2.72 2.81 2.74 2.48 2.39 2.23 1.93 1.80 1.55 1.41 1.40 1.21
0.32 0.32 0.42 0.55 0.64 0.67 0.76 0.90 0.98 1.16 1.27 1.32 1.39 1.54 1.61 1.67 1.73 1.72 1.69 1.63 1.59 1.58 1.60 1.68 1.77 1.90 2.02 2.11 2.22 2.36 2.40 2.51 2.74 2.76 2.60 2.39 2.17 2.14 2.04 1.93 1.61 1.44 1.27
0.49 0.58 0.71 0.81 0.87 0.88 0.85 0.86 0.99 1.04 1.02 1.05 1.05 1.18 1.27 1.33 1.40 1.40 1.40 1.43 1.47 1.48 1.41 1.46 1.56 1.79 1.98 2.07 2.16 2.17 2.14 2.19 2.38 2.38 2.45 2.42 2.13 2.07 1.98 1.97 2.04 1.76 1.57
0.73 0.94 1.12 1.23 1.30 1.21 1.01 0.88 0.88 0.88 0.85 0.91 0.95 0.99 1.08 1.13 1.16 1.20 1.15 1.25 1.30 1.29 1.23 1.25 1.29 1.42 1.65 1.91 2.06 2.00 1.92 1.88 2.04 2.10 2.19 2.30 2.32 2.23 2.14 2.11 2.16 2.10 1.84
1.16 1.41 1.64 1.76 1.73 1.54 1.27 0.99 0.83 0.80 0.77 0.80 0.84 0.90 0.94 0.96 0.95 0.99 0.94 1.00 1.10 1.09 1.09 1.09 1.14 1.27 1.38 1.58 1.81 1.91 1.85 1.82 1.87 1.98 2.10 2.24 2.33 2.38 2.19 2.15 2.12 1.98 1.88
1.59 1.73 1.88 1.92 1.66 1.48 1.24 0.98 0.82 0.85 0.87 0.86 0.86 0.85 0.82 0.81 0.81 0.81 0.78 0.82 0.89 0.89 0.92 1.08 1.13 1.19 1.25 1.43 1.69 1.87 1.87 1.79 1.79 1.78 1.87 2.04 2.12 2.34 2.31 2.23 2.12 1.99 1.82
1.34 1.41 1.47 1.43 1.38 1.34 1.16 1.01 0.92 0.93 0.97 0.97 0.97 0.90 0.81 0.76 0.75 0.73 0.66 0.67 0.65 0.64 0.76 0.90 0.94 0.97 1.00 1.18 1.47 1.67 1.71 1.67 1.58 1.57 1.69 1.91 2.08 2.29 2.39 2.34 2.21 2.11 1.98
1.16 1.15 1.16 1.18 1.20 1.17 1.06 1.05 1.02 1.03 1.03 1.01 0.91 0.83 0.76 0.66 0.61 0.54 0.50 0.57 0.59 0.65 0.77 0.86 0.91 0.93 0.98 1.01 1.11 1.27 1.39 1.37 1.31 1.34 1.41 1.47 1.67 1.96 2.14 2.16 2.18 2.21 2.19
0.93 0.92 0.96 1.01 1.09 1.07 1.04 0.99 0.95 0.99 1.09 1.14 1.03 0.92 0.80 0.70 0.64 0.55 0.51 0.50 0.53 0.60 0.68 0.76 0.82 0.89 0.95 0.95 0.96 0.98 1.05 1.06 1.11 1.17 1.22 1.26 1.31 1.54 1.72 1.81 2.00 2.23 2.24
0.63 0.66 0.70 0.70 0.67 0.63 0.66 0.70 0.76 0.87 1.02 1.16 1.14 1.00 0.81 0.68 0.62 0.59 0.51 0.49 0.50 0.51 0.58 0.65 0.69 0.74 0.83 0.92 0.95 0.82 0.77 0.84 0.95 0.98 0.96 0.98 1.05 1.19 1.29 1.36 1.72 2.06 2.24
0.39 0.38 0.38 0.39 0.38 0.34 0.31 0.31 0.39 0.55 0.79 1.05 1.02 0.81 0.64 0.51 0.48 0.49 0.48 0.44 0.43 0.48 0.53 0.52 0.56 0.68 0.72 0.86 0.84 0.67 0.65 0.68 0.78 0.87 0.87 0.77 0.76 0.81 0.87 0.96 1.14 1.41 1.66
0.28 0.28 0.26 0.26 0.25 0.23 0.21 0.23 0.31 0.43 0.59 0.71 0.68 0.58 0.47 0.45 0.48 0.50 0.46 0.44 0.45 0.45 0.47 0.46 0.48 0.53 0.67 0.72 0.58 0.55 0.57 0.64 0.69 0.75 0.82 0.75 0.65 0.72 0.76 0.86 0.93 0.95 1.02
0.19 0.20 0.19 0.18 0.20 0.21 0.24 0.27 0.31 0.37 0.42 0.46 0.47 0.42 0.39 0.41 0.43 0.44 0.44 0.51 0.56 0.53 0.52 0.53 0.52 0.52 0.58 0.57 0.47 0.50 0.52 0.57 0.62 0.70 0.79 0.85 0.78 0.77 0.88 0.88 0.91 0.87 0.83
0.11 0.11 0.11 0.10 0.11 0.11 0.12 0.13 0.15 0.16 0.17 0.17 0.19 0.19 0.19 0.21 0.22 0.24 0.30 0.41 0.48 0.51 0.54 0.58 0.58 0.53 0.50 0.52 0.44 0.46 0.52 0.56 0.61 0.63 0.68 0.76 0.74 0.88 0.97 0.97 1.10 1.08 0.96
0.08 0.08 0.08 0.08 0.09 0.09 0.08 0.05 0.05 0.06 0.06 0.06 0.07 0.09 0.10 0.10 0.10 0.13 0.16 0.23 0.24 0.30 0.40 0.43 0.46 0.49 0.48 0.60 0.48 0.49 0.52 0.61 0.70 0.71 0.69 0.83 0.83 0.89 0.89 0.87 1.11 1.13 1.01
0.09 0.08 0.08 0.08 0.10 0.10 0.09 0.08 0.06 0.05 0.06 0.07 0.09 0.09 0.09 0.08 0.08 0.09 0.11 0.14 0.15 0.20 0.24 0.28 0.34 0.42 0.50 0.61 0.59 0.63 0.63 0.69 0.82 0.79 0.72 0.66 0.77 0.66 0.73 0.77 0.82 1.03 1.02
0.08 0.08 0.07 0.08 0.09 0.09 0.09 0.09 0.09 0.08 0.07 0.08 0.08 0.09 0.09 0.10 0.09 0.09 0.10 0.11 0.13 0.14 0.16 0.18 0.23 0.31 0.39 0.47 0.53 0.55 0.59 0.67 0.76 0.81 0.69 0.66 0.73 0.58 0.56 0.58 0.70 0.86 0.97
0.07 0.07 0.08 0.08 0.09 0.09 0.09 0.09 0.10 0.10 0.09 0.09 0.09 0.09 0.10 0.10 0.09 0.10 0.12 0.11 0.12 0.14 0.16 0.18 0.25 0.32 0.38 0.43 0.41 0.38 0.42 0.50 0.59 0.62 0.66 0.65 0.61 0.55 0.51 0.51 0.58 0.67 0.78
0.06 0.07 0.08 0.08 0.09 0.10 0.10 0.11 0.11 0.10 0.08 0.09 0.10 0.11 0.11 0.11 0.11 0.11 0.12 0.12 0.13 0.14 0.18 0.23 0.28 0.34 0.37 0.40 0.39 0.41 0.44 0.44 0.47 0.47 0.47 0.50 0.53 0.56 0.55 0.52 0.55 0.62 0.73
0.08 0.10 0.11 0.10 0.10 0.11 0.12 0.14 0.14 0.11 0.09 0.09 0.10 0.10 0.10 0.10 0.10 0.11 0.10 0.10 0.10 0.13 0.20 0.27 0.32 0.32 0.32 0.28 0.29 0.41 0.50 0.57 0.62 0.68 0.61 0.62 0.63 0.60 0.55 0.52 0.52 0.58 0.64
0.08 0.09 0.11 0.11 0.10 0.10 0.11 0.13 0.15 0.16 0.15 0.12 0.10 0.10 0.09 0.09 0.09 0.10 0.10 0.10 0.10 0.14 0.17 0.17 0.19 0.20 0.20 0.21 0.24 0.30 0.41 0.50 0.63 0.78 0.81 0.84 0.86 0.80 0.70 0.61 0.53 0.49 0.52

GEFSMW_prec_meanprecacc_222.txt.gz
Total_Precipitation_Accumulation
0.23 0.21 0.21 0.24 0.27 0.30 0.37 0.44 0.50 0.67 0.80 0.86 0.96 1.13 1.31 1.48 1.63 1.74 1.64 1.50 1.46 1.63 1.75 1.69 1.78 1.81 1.69 1.69 1.74 1.80 1.74 1.50 1.36 1.44 1.33 1.05 0.82 0.87 0.86 0.84 0.88 0.94 1.05
0.17 0.14 0.12 0.13 0.16 0.20 0.24 0.30 0.37 0.48 0.60 0.76 0.98 1.18 1.47 1.56 1.65 1.78 1.82 1.76 1.70 1.85 1.89 1.98 2.07 2.11 2.10 2.05 1.95 2.03 2.13 1.87 1.66 1.78 2.06 1.65 1.24 0.89 0.72 0.80 0.85 0.95 1.18
0.13 0.10 0.09 0.09 0.13 0.14 0.16 0.23 0.35 0.48 0.69 0.92 1.24 1.52 1.75 1.82 1.87 1.83 1.89 1.98 2.02 2.08 2.12 2.17 2.25 2.26 2.12 2.12 2.21 2.31 2.65 2.46 2.11 1.92 2.16 1.96 1.63 1.33 0.92 0.84 0.89 0.98 1.15
0.13 0.11 0.11 0.10 0.11 0.14 0.19 0.30 0.48 0.67 0.93 1.26 1.61 1.85 2.07 2.17 2.02 1.99 2.02 2.03 1.99 2.02 2.14 2.15 2.15 2.13 2.08 2.16 2.22 2.26 2.64 2.83 2.53 2.20 1.84 1.63 1.60 1.67 1.37 1.01 0.96 1.05 1.06
0.18 0.16 0.18 0.18 0.22 0.28 0.35 0.51 0.75 1.05 1.32 1.56 1.74 1.95 2.07 2.09 2.07 2.03 2.02 1.95 1.92 1.89 1.92 1.94 2.03 2.07 2.11 2.17 2.34 2.46 2.69 2.72 2.71 2.52 2.32 2.10 1.81 1.47 1.51 1.44 1.19 1.15 1.07
0.23 0.24 0.27 0.33 0.40 0.44 0.58 0.76 0.93 1.22 1.40 1.52 1.63 1.81 1.96 2.01 2.02 2.00 2.00 2.00 1.97 1.87 1.81 1.77 1.84 1.96 2.13 2.19 2.29 2.43 2.66 2.78 2.86 2.77 2.50 2.40 2.23 1.94 1.81 1.56 1.41 1.41 1.21
0.32 0.33 0.42 0.56 0.64 0.68 0.76 0.90 0.99 1.16 1.27 1.32 1.39 1.54 1.61 1.68 1.73 1.72 1.69 1.63 1.59 1.58 1.61 1.69 1.77 1.91 2.03 2.11 2.23 2.37 2.43 2.54 2.77 2.78 2.61 2.40 2.18 2.15 2.05 1.94 1.62 1.44 1.27
0.49 0.59 0.71 0.81 0.88 0.88 0.85 0.87 1.00 1.05 1.03 1.05 1.06 1.18 1.27 1.33 1.40 1.41 1.40 1.43 1.47 1.48 1.42 1.47 1.57 1.79 1.99 2.07 2.17 2.18 2.16 2.21 2.39 2.40 2.46 2.43 2.14 2.07 1.98 1.98 2.04 1.77 1.57
0.74 0.95 1.12 1.23 1.30 1.21 1.02 0.88 0.89 0.88 0.86 0.91 0.95 1.00 1.09 1.13 1.16 1.20 1.16 1.26 1.30 1.29 1.23 1.26 1.29 1.42 1.65 1.91 2.07 2.01 1.93 1.89 2.05 2.12 2.20 2.32 2.33 2.23 2.14 2.11 2.16 2.10 1.84
1.17 1.42 1.64 1.76 1.73 1.54 1.28 1.00 0.84 0.80 0.78 0.81 0.85 0.90 0.95 0.96 0.95 1.00 0.94 1.00 1.10 1.10 1.09 1.09 1.14 1.27 1.38 1.60 1.83 1.93 1.86 1.83 1.89 2.00 2.12 2.24 2.34 2.39 2.19 2.15 2.13 1.98 1.88
1.59 1.74 1.89 1.93 1.67 1.49 1.25 0.99 0.83 0.86 0.88 0.88 0.88 0.87 0.83 0.82 0.82 0.81 0.78 0.82 0.89 0.89 0.92 1.09 1.14 1.20 1.28 1.47 1.73 1.90 1.91 1.83 1.83 1.80 1.88 2.05 2.14 2.35 2.31 2.23 2.12 1.99 1.83
1.34 1.42 1.49 1.44 1.39 1.35 1.17 1.02 0.93 0.94 0.99 0.99 0.99 0.92 0.82 0.77 0.76 0.73 0.66 0.67 0.65 0.64 0.76 0.90 0.95 0.99 1.04 1.21 1.50 1.70 1.74 1.71 1.62 1.60 1.71 1.93 2.10 2.30 2.39 2.35 2.21 2.12 1.98
1.17 1.16 1.17 1.21 1.22 1.19 1.07 1.06 1.03 1.04 1.04 1.02 0.92 0.85 0.77 0.67 0.61 0.54 0.50 0.58 0.59 0.65 0.77 0.86 0.91 0.93 0.99 1.03 1.13 1.29 1.42 1.40 1.34 1.38 1.44 1.49 1.69 1.97 2.15 2.17 2.18 2.22 2.19
0.94 0.93 0.98 1.04 1.11 1.08 1.04 1.00 0.95 0.99 1.09 1.14 1.04 0.93 0.81 0.71 0.64 0.56 0.52 0.52 0.54 0.60 0.69 0.76 0.83 0.90 0.95 0.96 0.97 0.99 1.06 1.07 1.12 1.19 1.24 1.28 1.33 1.56 1.73 1.82 2.00 2.23 2.25
0.64 0.68 0.73 0.72 0.68 0.64 0.67 0.70 0.77 0.88 1.03 1.16 1.15 1.00 0.81 0.69 0.63 0.59 0.52 0.51 0.51 0.52 0.59 0.66 0.69 0.74 0.84 0.93 0.96 0.83 0.78 0.86 0.96 0.99 0.97 0.99 1.06 1.20 1.30 1.38 1.73 2.06 2.24
0.40 0.39 0.40 0.40 0.39 0.35 0.31 0.31 0.39 0.55 0.80 1.05 1.03 0.81 0.64 0.52 0.48 0.50 0.49 0.45 0.45 0.50 0.55 0.54 0.57 0.68 0.72 0.87 0.85 0.68 0.66 0.70 0.79 0.89 0.88 0.77 0.76 0.82 0.89 0.97 1.14 1.42 1.67
0.29 0.28 0.27 0.27 0.25 0.24 0.22 0.23 0.31 0.43 0.60 0.71 0.68 0.58 0.48 0.45 0.49 0.51 0.46 0.45 0.46 0.46 0.49 0.48 0.49 0.54 0.68 0.72 0.58 0.56 0.58 0.65 0.70 0.76 0.83 0.75 0.65 0.72 0.77 0.87 0.94 0.95 1.03
0.20 0.20 0.19 0.19 0.21 0.21 0.24 0.28 0.32 0.37 0.42 0.46 0.47 0.42 0.39 0.41 0.44 0.45 0.45 0.51 0.57 0.54 0.53 0.54 0.53 0.52 0.58 0.58 0.47 0.51 0.53 0.58 0.62 0.71 0.80 0.85 0.78 0.78 0.88 0.89 0.92 0.88 0.84
0.11 0.11 0.11 0.10 0.12 0.12 0.12 0.13 0.15 0.16 0.17 0.18 0.19 0.19 0.19 0.21 0.23 0.24 0.31 0.42 0.49 0.52 0.55 0.59 0.59 0.54 0.51 0.52 0.45 0.47 0.53 0.57 0.62 0.63 0.68 0.76 0.75 0.88 0.97 0.98 1.11 1.09 0.97
0.08 0.08 0.08 0.08 0.09 0.09 0.08 0.06 0.06 0.06 0.06 0.07 0.07 0.09 0.10 0.11 0.11 0.14 0.18 0.24 0.25 0.31 0.41 0.44 0.47 0.51 0.50 0.61 0.49 0.49 0.53 0.61 0.71 0.72 0.70 0.83 0.83 0.90 0.90 0.88 1.11 1.14 1.02
0.09 0.08 0.08 0.08 0.10 0.11 0.09 0.08 0.07 0.06 0.07 0.08 0.10 0.10 0.09 0.09 0.09 0.10 0.13 0.16 0.17 0.21 0.25 0.30 0.36 0.43 0.51 0.63 0.61 0.64 0.64 0.70 0.82 0.80 0.72 0.66 0.78 0.67 0.74 0.78 0.82 1.04 1.03
0.08 0.08 0.07 0.08 0.09 0.09 0.09 0.09 0.10 0.09 0.09 0.09 0.09 0.09 0.10 0.10 0.09 0.10 0.12 0.15 0.15 0.16 0.18 0.20 0.26 0.34 0.41 0.49 0.55 0.56 0.60 0.68 0.77 0.81 0.69 0.66 0.73 0.58 0.56 0.58 0.70 0.86 0.98
0.07 0.08 0.08 0.08 0.09 0.09 0.09 0.09 0.10 0.11 0.10 0.09 0.09 0.10 0.11 0.11 0.10 0.11 0.14 0.14 0.15 0.17 0.18 0.20 0.27 0.35 0.41 0.45 0.43 0.40 0.44 0.51 0.59 0.62 0.66 0.66 0.62 0.56 0.51 0.51 0.58 0.67 0.78
0.07 0.07 0.09 0.09 0.09 0.10 0.10 0.11 0.11 0.11 0.09 0.10 0.11 0.12 0.12 0.12 0.12 0.13 0.14 0.15 0.16 0.18 0.21 0.26 0.31 0.36 0.40 0.42 0.40 0.42 0.45 0.45 0.47 0.47 0.47 0.50 0.53 0.56 0.55 0.52 0.55 0.62 0.73
0.09 0.11 0.12 0.11 0.10 0.11 0.13 0.15 0.15 0.12 0.10 0.11 0.12 0.12 0.12 0.12 0.12 0.13 0.13 0.13 0.14 0.17 0.24 0.31 0.36 0.35 0.34 0.30 0.31 0.41 0.51 0.57 0.63 0.68 0.62 0.62 0.63 0.60 0.55 0.52 0.52 0.58 0.64
0.09 0.10 0.11 0.12 0.11 0.11 0.12 0.14 0.17 0.18 0.18 0.14 0.12 0.11 0.11 0.11 0.11 0.12 0.12 0.13 0.13 0.18 0.20 0.21 0.24 0.24 0.24 0.24 0.25 0.31 0.42 0.51 0.63 0.79 0.81 0.84 0.86 0.80 0.70 0.61 0.53 0.49 0.52

GEFSMW_prec_meanprecacc_228.txt.gz
Total_Precipitation_Accumulation
0.23 0.21 0.21 0.24 0.27 0.31 0.37 0.44 0.50 0.68 0.81 0.87 0.97 1.15 1.32 1.48 1.63 1.74 1.64 1.50 1.46 1.63 1.76 1.70 1.79 1.82 1.70 1.71 1.77 1.83 1.78 1.54 1.41 1.48 1.37 1.08 0.84 0.89 0.88 0.85 0.89 0.95 1.05
0.18 0.14 0.12 0.14 0.17 0.20 0.24 0.30 0.38 0.48 0.61 0.77 1.00 1.19 1.48 1.57 1.65 1.78 1.82 1.76 1.70 1.86 1.90 1.99 2.09 2.13 2.12 2.08 1.97 2.06 2.17 1.91 1.69 1.81 2.09 1.68 1.27 0.91 0.72 0.81 0.86 0.96 1.19
0.14 0.10 0.10 0.09 0.13 0.14 0.16 0.23 0.35 0.48 0.69 0.93 1.25 1.53 1.76 1.83 1.88 1.84 1.89 1.98 2.02 2.09 2.12 2.18 2.26 2.29 2.14 2.14 2.23 2.34 2.68 2.50 2.15 1.94 2.18 1.99 1.67 1.35 0.93 0.85 0.90 0.99 1.16
0.13 0.11 0.11 0.11 0.11 0.14 0.19 0.30 0.48 0.67 0.94 1.27 1.62 1.86 2.09 2.19 2.03 2.00 2.03 2.04 2.00 2.03 2.15 2.16 2.16 2.15 2.10 2.17 2.23 2.27 2.66 2.86 2.58 2.24 1.87 1.65 1.62 1.69 1.39 1.01 0.96 1.05 1.06
0.19 0.16 0.18 0.18 0.22 0.28 0.35 0.51 0.76 1.05 1.33 1.56 1.75 1.95 2.08 2.10 2.08 2.04 2.03 1.96 1.93 1.90 1.93 1.95 2.04 2.08 2.13 2.18 2.35 2.47 2.71 2.75 2.74 2.55 2.35 2.12 1.82 1.48 1.52 1.45 1.20 1.16 1.07
0.23 0.24 0.27 0.33 0.40 0.44 0.58 0.76 0.93 1.22 1.41 1.52 1.63 1.82 1.97 2.02 2.03 2.01 2.01 2.01 1.98 1.87 1.81 1.78 1.85 1.98 2.14 2.20 2.29 2.44 2.67 2.79 2.87 2.79 2.52 2.42 2.25 1.95 1.82 1.57 1.42 1.42 1.22
0.32 0.33 0.42 0.56 0.64 0.68 0.76 0.90 0.99 1.17 1.28 1.33 1.40 1.55 1.62 1.68 1.74 1.73 1.70 1.64 1.59 1.59 1.62 1.69 1.79 1.93 2.05 2.12 2.24 2.38 2.43 2.55 2.79 2.80 2.62 2.41 2.19 2.16 2.06 1.94 1.62 1.45 1.28
0.50 0.60 0.72 0.82 0.88 0.88 0.85 0.87 1.00 1.05 1.03 1.06 1.06 1.19 1.29 1.35 1.41 1.41 1.41 1.45 1.49 1.50 1.43 1.47 1.58 1.81 2.00 2.08 2.18 2.19 2.17 2.22 2.41 2.41 2.47 2.44 2.15 2.08 1.99 1.98 2.05 1.78 1.58
0.74 0.96 1.13 1.23 1.30 1.21 1.02 0.89 0.89 0.88 0.86 0.92 0.96 1.01 1.11 1.15 1.18 1.21 1.17 1.26 1.32 1.31 1.25 1.26 1.30 1.44 1.66 1.92 2.08 2.02 1.94 1.90 2.06 2.13 2.22 2.33 2.34 2.24 2.15 2.12 2.17 2.12 1.86
1.17 1.42 1.64 1.76 1.74 1.55 1.28 1.00 0.84 0.80 0.78 0.81 0.86 0.92 0.96 0.97 0.96 1.01 0.95 1.01 1.10 1.11 1.10 1.10 1.16 1.28 1.39 1.60 1.84 1.94 1.87 1.84 1.91 2.02 2.14 2.26 2.37 2.40 2.21 2.17 2.14 2.00 1.91
1.59 1.74 1.89 1.94 1.68 1.49 1.25 0.99 0.84 0.86 0.88 0.88 0.88 0.88 0.84 0.83 0.82 0.81 0.79 0.82 0.90 0.90 0.93 1.10 1.16 1.22 1.29 1.48 1.74 1.91 1.92 1.85 1.86 1.84 1.91 2.08 2.16 2.37 2.33 2.25 2.14 2.01 1.85
1.36 1.44 1.50 1.46 1.40 1.36 1.18 1.02 0.93 0.94 0.99 1.00 1.00 0.92 0.83 0.77 0.76 0.74 0.67 0.68 0.66 0.65 0.77 0.91 0.96 1.00 1.05 1.23 1.52 1.71 1.75 1.72 1.64 1.62 1.74 1.95 2.12 2.33 2.41 2.36 2.22 2.13 2.00
1.19 1.17 1.18 1.23 1.24 1.20 1.08 1.06 1.03 1.04 1.04 1.02 0.93 0.86 0.77 0.67 0.62 0.54 0.51 0.58 0.59 0.66 0.78 0.87 0.92 0.94 1.00 1.04 1.15 1.31 1.43 1.41 1.36 1.39 1.46 1.51 1.71 2.00 2.16 2.17 2.19 2.22 2.20
0.96 0.94 1.00 1.07 1.13 1.09 1.06 1.01 0.96 1.00 1.09 1.14 1.04 0.94 0.82 0.71 0.64 0.56 0.53 0.52 0.54 0.61 0.70 0.78 0.84 0.91 0.97 0.98 0.99 1.01 1.08 1.09 1.15 1.20 1.25 1.30 1.35 1.58 1.75 1.83 2.01 2.24 2.26
0.65 0.69 0.74 0.74 0.70 0.66 0.69 0.72 0.78 0.88 1.03 1.17 1.15 1.01 0.82 0.69 0.64 0.59 0.52 0.51 0.52 0.53 0.60 0.67 0.70 0.76 0.85 0.94 0.97 0.84 0.80 0.88 0.99 1.02 0.99 1.01 1.09 1.22 1.32 1.39 1.74 2.08 2.27
0.41 0.40 0.41 0.41 0.39 0.35 0.32 0.33 0.40 0.56 0.81 1.06 1.03 0.82 0.65 0.52 0.49 0.50 0.49 0.45 0.45 0.50 0.55 0.54 0.58 0.69 0.73 0.88 0.87 0.71 0.69 0.72 0.81 0.90 0.90 0.80 0.78 0.83 0.91 0.99 1.16 1.44 1.68
0.29 0.28 0.28 0.27 0.26 0.24 0.22 0.25 0.32 0.44 0.61 0.72 0.69 0.59 0.48 0.45 0.49 0.51 0.46 0.45 0.46 0.47 0.49 0.48 0.49 0.55 0.68 0.73 0.59 0.58 0.62 0.68 0.72 0.77 0.84 0.77 0.67 0.74 0.79 0.88 0.95 0.96 1.04
0.20 0.20 0.19 0.19 0.22 0.22 0.25 0.29 0.33 0.38 0.43 0.46 0.47 0.42 0.40 0.41 0.44 0.45 0.45 0.51 0.57 0.54 0.53 0.54 0.54 0.53 0.59 0.58 0.48 0.51 0.54 0.60 0.64 0.72 0.81 0.87 0.79 0.79 0.90 0.90 0.93 0.89 0.85
0.11 0.11 0.11 0.10 0.12 0.12 0.13 0.14 0.16 0.17 0.18 0.18 0.19 0.20 0.20 0.22 0.24 0.25 0.31 0.42 0.49 0.52 0.55 0.59 0.59 0.54 0.52 0.53 0.45 0.47 0.53 0.58 0.63 0.64 0.69 0.77 0.75 0.90 0.99 0.99 1.12 1.10 0.98
0.08 0.08 0.08 0.08 0.09 0.10 0.09 0.07 0.06 0.07 0.07 0.07 0.07 0.09 0.11 0.11 0.12 0.14 0.18 0.24 0.25 0.31 0.41 0.44 0.47 0.51 0.50 0.62 0.50 0.50 0.53 0.62 0.72 0.73 0.71 0.84 0.84 0.91 0.91 0.89 1.12 1.14 1.02
0.09 0.08 0.08 0.09 0.10 0.11 0.10 0.09 0.08 0.07 0.08 0.09 0.10 0.10 0.10 0.10 0.10 0.11 0.13 0.16 0.17 0.21 0.26 0.30 0.36 0.44 0.52 0.64 0.61 0.64 0.64 0.70 0.83 0.81 0.73 0.68 0.79 0.67 0.74 0.78 0.83 1.05 1.04
0.09 0.08 0.07 0.08 0.09 0.09 0.09 0.09 0.10 0.09 0.09 0.10 0.10 0.10 0.10 0.11 0.10 0.11 0.13 0.15 0.16 0.17 0.19 0.21 0.27 0.35 0.41 0.49 0.56 0.57 0.61 0.69 0.78 0.82 0.70 0.67 0.75 0.59 0.57 0.59 0.70 0.87 0.99
0.07 0.08 0.08 0.08 0.09 0.09 0.09 0.09 0.10 0.11 0.10 0.10 0.10 0.11 0.12 0.12 0.11 0.12 0.15 0.15 0.16 0.18 0.19 0.21 0.28 0.36 0.42 0.46 0.44 0.42 0.45 0.52 0.61 0.64 0.67 0.66 0.63 0.57 0.51 0.51 0.59 0.67 0.78
0.07 0.07 0.09 0.09 0.10 0.11 0.10 0.12 0.11 0.11 0.10 0.11 0.13 0.14 0.14 0.14 0.14 0.15 0.16 0.17 0.18 0.19 0.23 0.28 0.32 0.37 0.41 0.44 0.42 0.45 0.48 0.47 0.49 0.49 0.49 0.51 0.54 0.57 0.55 0.53 0.56 0.63 0.73
0.09 0.11 0.12 0.11 0.11 0.12 0.13 0.15 0.15 0.13 0.12 0.12 0.13 0.13 0.13 0.14 0.14 0.15 0.16 0.16 0.16 0.20 0.27 0.33 0.37 0.36 0.36 0.32 0.33 0.44 0.53 0.59 0.65 0.70 0.63 0.63 0.64 0.61 0.56 0.53 0.53 0.59 0.65
0.09 0.10 0.12 0.12 0.11 0.11 0.13 0.15 0.18 0.20 0.20 0.17 0.14 0.13 0.12 0.13 0.13 0.14 0.14 0.15 0.15 0.20 0.23 0.23 0.25 0.26 0.26 0.27 0.28 0.34 0.44 0.53 0.66 0.81 0.83 0.86 0.88 0.81 0.71 0.62 0.54 0.50 0.53

GEFSMW_prec_meanprecacc_234.txt.gz
Total_Precipitation_Accumulation
0.26 0.24 0.22 0.25 0.28 0.32 0.39 0.45 0.51 0.69 0.82 0.88 0.98 1.16 1.33 1.50 1.64 1.75 1.65 1.51 1.47 1.64 1.76 1.70 1.79 1.82 1.70 1.72 1.78 1.84 1.78 1.54 1.41 1.49 1.38 1.09 0.85 0.91 0.89 0.86 0.89 0.95 1.05
0.21 0.16 0.13 0.14 0.18 0.21 0.26 0.31 0.39 0.49 0.61 0.78 1.01 1.20 1.49 1.58 1.66 1.79 1.83 1.77 1.71 1.87 1.90 1.99 2.09 2.14 2.14 2.09 1.98 2.07 2.18 1.92 1.69 1.81 2.11 1.70 1.28 0.93 0.74 0.81 0.86 0.96 1.19
0.15 0.12 0.10 0.10 0.14 0.16 0.17 0.24 0.36 0.49 0.70 0.94 1.26 1.55 1.78 1.86 1.90 1.85 1.90 1.98 2.03 2.10 2.13 2.19 2.27 2.30 2.15 2.16 2.24 2.36 2.70 2.52 2.15 1.95 2.19 2.01 1.68 1.37 0.94 0.85 0.90 0.99 1.16
0.14 0.12 0.12 0.11 0.12 0.15 0.20 0.31 0.49 0.68 0.95 1.29 1.63 1.87 2.10 2.21 2.05 2.03 2.06 2.06 2.01 2.04 2.16 2.17 2.17 2.16 2.10 2.17 2.24 2.29 2.68 2.87 2.59 2.25 1.88 1.66 1.62 1.69 1.39 1.02 0.97 1.05 1.06
0.19 0.17 0.18 0.18 0.22 0.28 0.36 0.52 0.77 1.06 1.35 1.58 1.76 1.96 2.09 2.11 2.09 2.05 2.04 1.97 1.94 1.90 1.94 1.96 2.06 2.09 2.13 2.19 2.35 2.48 2.72 2.75 2.74 2.56 2.36 2.13 1.82 1.48 1.53 1.46 1.20 1.16 1.07
0.24 0.24 0.27 0.33 0.40 0.45 0.59 0.77 0.95 1.24 1.42 1.54 1.65 1.82 1.98 2.02 2.04 2.02 2.02 2.01 1.98 1.88 1.82 1.80 1.87 1.99 2.14 2.20 2.30 2.44 2.68 2.80 2.88 2.80 2.52 2.43 2.26 1.95 1.82 1.57 1.42 1.42 1.22
0.34 0.34 0.42 0.56 0.65 0.68 0.77 0.91 1.00 1.18 1.30 1.34 1.42 1.57 1.63 1.69 1.75 1.74 1.70 1.65 1.61 1.61 1.66 1.74 1.81 1.94 2.05 2.12 2.25 2.39 2.44 2.56 2.80 2.81 2.63 2.42 2.21 2.17 2.06 1.95 1.62 1.45 1.28
0.52 0.61 0.73 0.82 0.89 0.89 0.86 0.88 1.01 1.06 1.05 1.08 1.08 1.22 1.31 1.36 1.42 1.42 1.41 1.45 1.50 1.53 1.48 1.52 1.61 1.82 2.01 2.09 2.18 2.20 2.17 2.22 2.42 2.42 2.48 2.45 2.16 2.09 2.00 1.99 2.06 1.78 1.59
0.75 0.97 1.14 1.24 1.31 1.22 1.03 0.90 0.90 0.89 0.87 0.93 0.97 1.04 1.13 1.17 1.19 1.22 1.18 1.27 1.32 1.32 1.28 1.32 1.35 1.47 1.68 1.93 2.08 2.03 1.95 1.91 2.07 2.14 2.23 2.35 2.36 2.25 2.15 2.12 2.18 2.13 1.88
1.18 1.43 1.67 1.78 1.75 1.56 1.30 1.02 0.85 0.82 0.79 0.82 0.88 0.94 0.98 0.99 0.98 1.02 0.96 1.02 1.11 1.11 1.11 1.11 1.18 1.33 1.45 1.64 1.86 1.95 1.88 1.86 1.93 2.03 2.16 2.28 2.38 2.41 2.21 2.17 2.15 2.01 1.91
1.61 1.76 1.91 1.95 1.69 1.51 1.27 1.01 0.86 0.88 0.90 0.90 0.91 0.90 0.85 0.84 0.83 0.82 0.79 0.83 0.90 0.90 0.93 1.10 1.16 1.23 1.31 1.51 1.77 1.95 1.96 1.88 1.88 1.85 1.93 2.09 2.18 2.38 2.34 2.25 2.14 2.02 1.86
1.37 1.45 1.53 1.49 1.44 1.38 1.21 1.04 0.95 0.96 1.00 1.01 1.02 0.94 0.84 0.78 0.77 0.74 0.67 0.68 0.67 0.66 0.77 0.91 0.96 1.01 1.05 1.23 1.53 1.73 1.77 1.75 1.66 1.64 1.76 1.97 2.13 2.34 2.42 2.36 2.22 2.13 2.00
1.21 1.19 1.21 1.25 1.27 1.23 1.11 1.09 1.05 1.06 1.06 1.05 0.96 0.88 0.79 0.68 0.62 0.55 0.51 0.58 0.60 0.67 0.79 0.87 0.92 0.95 1.01 1.05 1.16 1.32 1.44 1.43 1.37 1.41 1.47 1.52 1.72 2.00 2.16 2.18 2.19 2.23 2.21
0.98 0.96 1.03 1.11 1.16 1.12 1.09 1.04 0.99 1.02 1.12 1.18 1.08 0.97 0.85 0.73 0.65 0.57 0.53 0.53 0.56 0.63 0.72 0.79 0.86 0.92 0.97 0.98 0.99 1.02 1.09 1.11 1.16 1.22 1.26 1.31 1.36 1.59 1.75 1.84 2.02 2.25 2.27
0.66 0.71 0.76 0.76 0.73 0.68 0.72 0.75 0.80 0.91 1.06 1.20 1.17 1.03 0.85 0.72 0.65 0.60 0.53 0.52 0.54 0.55 0.63 0.70 0.72 0.77 0.86 0.95 0.97 0.85 0.81 0.91 1.02 1.03 1.00 1.02 1.10 1.23 1.33 1.39 1.74 2.09 2.27
0.42 0.41 0.43 0.42 0.41 0.37 0.34 0.35 0.42 0.58 0.83 1.08 1.06 0.84 0.67 0.54 0.50 0.51 0.50 0.48 0.47 0.52 0.57 0.56 0.59 0.70 0.74 0.88 0.87 0.71 0.70 0.75 0.85 0.94 0.92 0.81 0.80 0.84 0.92 1.00 1.17 1.45 1.69
0.30 0.30 0.30 0.29 0.27 0.26 0.25 0.26 0.34 0.45 0.62 0.73 0.71 0.61 0.50 0.47 0.50 0.52 0.47 0.46 0.47 0.48 0.50 0.49 0.50 0.55 0.68 0.73 0.60 0.58 0.62 0.70 0.76 0.81 0.87 0.79 0.68 0.75 0.80 0.90 0.97 0.98 1.06
0.21 0.21 0.21 0.21 0.24 0.24 0.27 0.30 0.35 0.40 0.44 0.48 0.49 0.44 0.41 0.42 0.45 0.46 0.45 0.52 0.58 0.55 0.55 0.56 0.55 0.54 0.59 0.59 0.48 0.52 0.54 0.60 0.66 0.75 0.84 0.89 0.81 0.81 0.91 0.91 0.95 0.90 0.86
0.13 0.12 0.12 0.12 0.14 0.13 0.14 0.15 0.17 0.18 0.19 0.19 0.21 0.22 0.21 0.23 0.24 0.25 0.32 0.42 0.49 0.53 0.56 0.60 0.60 0.55 0.52 0.54 0.46 0.48 0.54 0.59 0.63 0.66 0.72 0.81 0.78 0.92 1.01 1.01 1.13 1.11 0.98
0.10 0.09 0.08 0.09 0.11 0.10 0.10 0.08 0.07 0.07 0.08 0.08 0.09 0.11 0.12 0.13 0.13 0.15 0.19 0.25 0.26 0.31 0.42 0.45 0.48 0.51 0.50 0.63 0.51 0.51 0.54 0.62 0.72 0.74 0.72 0.86 0.86 0.94 0.93 0.91 1.14 1.15 1.03
0.10 0.10 0.09 0.09 0.10 0.11 0.10 0.09 0.08 0.08 0.08 0.10 0.12 0.12 0.11 0.12 0.12 0.13 0.15 0.17 0.18 0.22 0.26 0.31 0.37 0.44 0.52 0.65 0.62 0.65 0.65 0.71 0.83 0.81 0.74 0.69 0.80 0.69 0.76 0.80 0.84 1.06 1.05
0.09 0.10 0.08 0.09 0.10 0.10 0.10 0.10 0.10 0.10 0.10 0.11 0.11 0.12 0.12 0.12 0.12 0.13 0.15 0.17 0.17 0.18 0.20 0.22 0.28 0.35 0.42 0.50 0.57 0.58 0.62 0.70 0.78 0.82 0.71 0.68 0.76 0.61 0.58 0.60 0.72 0.89 1.01
0.08 0.09 0.10 0.10 0.11 0.10 0.10 0.09 0.11 0.12 0.11 0.11 0.11 0.12 0.14 0.13 0.12 0.14 0.16 0.18 0.18 0.20 0.21 0.24 0.30 0.37 0.43 0.47 0.46 0.44 0.47 0.53 0.61 0.64 0.68 0.67 0.64 0.58 0.53 0.53 0.61 0.69 0.80
0.08 0.08 0.10 0.11 0.12 0.12 0.11 0.12 0.12 0.11 0.10 0.11 0.13 0.14 0.15 0.15 0.15 0.16 0.17 0.19 0.20 0.22 0.25 0.30 0.34 0.40 0.43 0.46 0.44 0.47 0.50 0.49 0.50 0.50 0.50 0.52 0.55 0.58 0.57 0.55 0.57 0.64 0.75
0.10 0.12 0.13 0.12 0.12 0.13 0.14 0.16 0.16 0.13 0.12 0.12 0.13 0.13 0.14 0.15 0.16 0.17 0.17 0.17 0.18 0.22 0.30 0.36 0.40 0.39 0.38 0.34 0.35 0.46 0.56 0.61 0.67 0.72 0.65 0.64 0.65 0.62 0.58 0.55 0.56 0.60 0.66
0.09 0.10 0.12 0.12 0.12 0.12 0.13 0.15 0.18 0.20 0.20 0.17 0.15 0.13 0.13 0.14 0.14 0.15 0.16 0.17 0.18 0.22 0.25 0.26 0.28 0.28 0.29 0.30 0.30 0.36 0.47 0.56 0.68 0.83 0.84 0.88 0.89 0.82 0.73 0.64 0.56 0.53 0.55

GEFSMW_prec_meanprecacc_240.txt.gz
Total_Precipitation_Accumulation
0.27 0.25 0.23 0.26 0.29 0.33 0.40 0.46 0.52 0.70 0.82 0.88 0.98 1.16 1.34 1.52 1.67 1.77 1.66 1.53 1.48 1.65 1.78 1.71 1.79 1.83 1.71 1.72 1.78 1.84 1.79 1.57 1.43 1.49 1.39 1.11 0.86 0.92 0.90 0.86 0.89 0.95 1.05
0.22 0.18 0.14 0.15 0.19 0.22 0.26 0.32 0.39 0.49 0.62 0.78 1.01 1.21 1.50 1.60 1.68 1.80 1.84 1.78 1.72 1.88 1.92 2.01 2.10 2.15 2.14 2.09 1.99 2.09 2.19 1.94 1.70 1.82 2.11 1.71 1.30 0.94 0.75 0.82 0.86 0.96 1.19
0.17 0.13 0.11 0.11 0.16 0.17 0.19 0.26 0.38 0.50 0.71 0.95 1.26 1.55 1.79 1.87 1.92 1.86 1.91 1.99 2.04 2.11 2.14 2.19 2.27 2.30 2.16 2.16 2.25 2.37 2.72 2.53 2.16 1.95 2.20 2.01 1.68 1.38 0.96 0.86 0.91 0.99 1.16
0.16 0.13 0.12 0.12 0.13 0.17 0.22 0.34 0.51 0.70 0.96 1.29 1.64 1.88 2.11 2.22 2.07 2.04 2.07 2.07 2.02 2.05 2.16 2.17 2.17 2.16 2.10 2.18 2.25 2.30 2.69 2.88 2.60 2.26 1.89 1.66 1.63 1.69 1.40 1.03 0.98 1.06 1.07
0.20 0.18 0.18 0.19 0.22 0.30 0.37 0.53 0.78 1.08 1.36 1.59 1.77 1.97 2.09 2.12 2.10 2.06 2.05 1.97 1.94 1.91 1.94 1.96 2.06 2.10 2.14 2.20 2.36 2.49 2.73 2.76 2.75 2.57 2.37 2.14 1.84 1.49 1.54 1.47 1.21 1.17 1.08
0.24 0.25 0.27 0.34 0.41 0.46 0.60 0.78 0.97 1.26 1.44 1.55 1.66 1.83 1.98 2.03 2.04 2.02 2.02 2.02 1.99 1.89 1.83 1.80 1.87 2.00 2.16 2.21 2.31 2.45 2.69 2.80 2.89 2.80 2.53 2.44 2.28 1.97 1.84 1.58 1.43 1.43 1.22
0.35 0.35 0.43 0.56 0.65 0.69 0.78 0.93 1.03 1.21 1.32 1.36 1.43 1.57 1.64 1.70 1.76 1.74 1.71 1.65 1.62 1.62 1.66 1.74 1.82 1.95 2.06 2.13 2.25 2.40 2.45 2.56 2.80 2.81 2.63 2.43 2.23 2.21 2.08 1.96 1.63 1.46 1.28
0.53 0.62 0.74 0.83 0.90 0.90 0.88 0.91 1.05 1.10 1.08 1.10 1.10 1.23 1.31 1.37 1.43 1.43 1.42 1.46 1.51 1.54 1.49 1.53 1.61 1.82 2.01 2.09 2.19 2.21 2.18 2.23 2.42 2.42 2.48 2.46 2.19 2.13 2.02 2.00 2.07 1.79 1.59
0.77 0.98 1.15 1.25 1.32 1.24 1.05 0.92 0.93 0.93 0.90 0.96 0.99 1.06 1.14 1.18 1.21 1.24 1.19 1.28 1.34 1.34 1.30 1.33 1.36 1.47 1.68 1.93 2.09 2.04 1.95 1.91 2.07 2.14 2.24 2.36 2.39 2.29 2.18 2.14 2.19 2.13 1.88
1.19 1.45 1.67 1.78 1.75 1.57 1.31 1.04 0.87 0.84 0.81 0.84 0.90 0.96 1.00 1.00 0.99 1.02 0.97 1.02 1.12 1.12 1.12 1.12 1.19 1.33 1.45 1.64 1.87 1.96 1.89 1.87 1.93 2.04 2.16 2.29 2.39 2.43 2.23 2.19 2.16 2.01 1.92
1.62 1.77 1.92 1.96 1.70 1.53 1.29 1.03 0.87 0.89 0.90 0.92 0.93 0.92 0.88 0.86 0.84 0.82 0.79 0.84 0.91 0.91 0.94 1.11 1.18 1.24 1.32 1.51 1.77 1.95 1.96 1.89 1.88 1.85 1.93 2.10 2.18 2.40 2.35 2.26 2.15 2.03 1.86
1.38 1.46 1.54 1.50 1.46 1.40 1.23 1.06 0.96 0.97 1.01 1.03 1.05 0.97 0.87 0.81 0.78 0.75 0.68 0.69 0.67 0.66 0.78 0.92 0.97 1.02 1.06 1.24 1.53 1.73 1.78 1.76 1.67 1.64 1.76 1.98 2.14 2.35 2.42 2.37 2.22 2.14 2.01
1.21 1.20 1.22 1.27 1.30 1.26 1.13 1.10 1.06 1.07 1.08 1.07 0.98 0.90 0.81 0.70 0.63 0.56 0.52 0.59 0.61 0.68 0.80 0.88 0.94 0.96 1.02 1.06 1.16 1.32 1.45 1.44 1.39 1.41 1.48 1.52 1.72 2.01 2.17 2.18 2.19 2.23 2.22
0.98 0.97 1.04 1.12 1.18 1.15 1.11 1.05 1.00 1.04 1.14 1.20 1.10 0.99 0.87 0.76 0.67 0.58 0.54 0.54 0.57 0.64 0.74 0.80 0.87 0.94 0.99 0.99 1.00 1.02 1.09 1.11 1.18 1.24 1.27 1.31 1.37 1.59 1.76 1.84 2.02 2.25 2.28
0.66 0.71 0.77 0.78 0.74 0.69 0.74 0.77 0.81 0.92 1.08 1.22 1.19 1.05 0.88 0.75 0.68 0.62 0.54 0.54 0.55 0.56 0.64 0.71 0.73 0.78 0.87 0.96 0.98 0.85 0.81 0.91 1.03 1.04 1.00 1.03 1.11 1.24 1.34 1.40 1.75 2.09 2.28
0.42 0.42 0.43 0.44 0.43 0.38 0.36 0.37 0.44 0.60 0.84 1.10 1.07 0.86 0.69 0.56 0.52 0.53 0.52 0.49 0.48 0.53 0.58 0.56 0.60 0.70 0.74 0.89 0.88 0.72 0.70 0.76 0.85 0.94 0.92 0.82 0.80 0.85 0.93 1.01 1.18 1.46 1.70
0.31 0.30 0.30 0.30 0.29 0.27 0.26 0.28 0.35 0.47 0.64 0.75 0.73 0.64 0.53 0.50 0.52 0.54 0.48 0.48 0.48 0.49 0.51 0.49 0.50 0.55 0.69 0.73 0.60 0.59 0.62 0.70 0.76 0.81 0.87 0.79 0.68 0.75 0.81 0.91 0.98 0.99 1.07
0.22 0.21 0.21 0.21 0.24 0.25 0.29 0.33 0.37 0.41 0.45 0.49 0.51 0.46 0.44 0.45 0.48 0.49 0.47 0.53 0.59 0.56 0.55 0.56 0.55 0.54 0.60 0.59 0.49 0.52 0.55 0.61 0.66 0.75 0.84 0.89 0.81 0.81 0.91 0.92 0.95 0.91 0.86
0.14 0.13 0.12 0.12 0.14 0.14 0.15 0.16 0.19 0.20 0.20 0.20 0.21 0.23 0.22 0.25 0.27 0.28 0.34 0.45 0.51 0.54 0.57 0.61 0.61 0.55 0.52 0.54 0.47 0.48 0.54 0.60 0.64 0.66 0.73 0.81 0.79 0.92 1.01 1.01 1.14 1.11 0.99
0.11 0.10 0.08 0.09 0.11 0.11 0.11 0.09 0.09 0.09 0.09 0.09 0.10 0.12 0.13 0.13 0.14 0.17 0.22 0.28 0.28 0.33 0.43 0.46 0.48 0.52 0.51 0.63 0.52 0.52 0.55 0.63 0.73 0.75 0.72 0.86 0.87 0.94 0.93 0.91 1.14 1.16 1.03
0.10 0.10 0.09 0.09 0.11 0.12 0.11 0.10 0.10 0.09 0.09 0.11 0.13 0.14 0.13 0.13 0.13 0.14 0.17 0.21 0.21 0.25 0.28 0.32 0.38 0.45 0.53 0.66 0.64 0.66 0.66 0.71 0.84 0.82 0.74 0.69 0.81 0.70 0.76 0.81 0.84 1.07 1.07
0.10 0.10 0.09 0.09 0.11 0.11 0.11 0.10 0.11 0.11 0.10 0.11 0.12 0.14 0.14 0.14 0.13 0.14 0.17 0.20 0.21 0.21 0.22 0.23 0.28 0.36 0.43 0.51 0.57 0.58 0.63 0.71 0.79 0.83 0.71 0.69 0.77 0.61 0.59 0.61 0.73 0.90 1.02
0.08 0.09 0.10 0.10 0.11 0.11 0.11 0.10 0.11 0.12 0.12 0.12 0.12 0.14 0.16 0.15 0.13 0.15 0.18 0.20 0.22 0.23 0.23 0.25 0.31 0.38 0.44 0.48 0.47 0.45 0.48 0.55 0.62 0.65 0.69 0.69 0.65 0.59 0.54 0.54 0.62 0.70 0.81
0.08 0.08 0.10 0.11 0.12 0.12 0.12 0.13 0.12 0.12 0.11 0.13 0.14 0.16 0.16 0.16 0.16 0.17 0.18 0.20 0.23 0.25 0.27 0.31 0.35 0.41 0.44 0.47 0.45 0.48 0.51 0.50 0.51 0.51 0.51 0.53 0.56 0.59 0.57 0.56 0.59 0.65 0.77
0.11 0.13 0.13 0.13 0.12 0.13 0.14 0.16 0.16 0.13 0.12 0.13 0.14 0.14 0.15 0.16 0.17 0.17 0.18 0.19 0.20 0.25 0.33 0.38 0.41 0.40 0.40 0.36 0.38 0.48 0.57 0.64 0.69 0.74 0.67 0.66 0.65 0.62 0.58 0.56 0.57 0.62 0.68
0.10 0.12 0.14 0.14 0.13 0.12 0.14 0.16 0.18 0.20 0.21 0.18 0.15 0.14 0.14 0.15 0.15 0.16 0.17 0.19 0.20 0.25 0.28 0.28 0.30 0.30 0.30 0.32 0.33 0.38 0.49 0.58 0.72 0.88 0.87 0.89 0.90 0.83 0.73 0.65 0.58 0.55 0.56

GEFSMW_prec_meanprecacc_246.txt.gz
Total_Precipitation_Accumulation
0.31 0.27 0.24 0.27 0.31 0.35 0.40 0.47 0.53 0.70 0.83 0.89 0.99 1.18 1.36 1.53 1.68 1.79 1.68 1.54 1.50 1.68 1.81 1.74 1.82 1.84 1.73 1.74 1.80 1.86 1.80 1.59 1.46 1.51 1.40 1.12 0.87 0.93 0.90 0.86 0.90 0.95 1.05
0.23 0.19 0.15 0.16 0.20 0.23 0.27 0.33 0.40 0.50 0.63 0.79 1.02 1.22 1.52 1.61 1.70 1.82 1.86 1.79 1.73 1.89 1.94 2.02 2.11 2.16 2.16 2.10 2.01 2.14 2.26 1.99 1.73 1.83 2.11 1.72 1.32 0.96 0.76 0.82 0.86 0.96 1.19
0.18 0.13 0.12 0.12 0.17 0.18 0.19 0.26 0.38 0.50 0.71 0.95 1.27 1.56 1.81 1.89 1.93 1.87 1.92 2.00 2.04 2.11 2.15 2.20 2.28 2.31 2.16 2.17 2.27 2.41 2.74 2.54 2.17 1.96 2.21 2.03 1.70 1.40 0.97 0.87 0.91 0.99 1.16
0.16 0.14 0.13 0.12 0.13 0.17 0.22 0.34 0.51 0.70 0.96 1.29 1.65 1.89 2.13 2.23 2.08 2.05 2.08 2.08 2.03 2.06 2.18 2.18 2.18 2.16 2.11 2.18 2.25 2.31 2.71 2.90 2.61 2.27 1.89 1.67 1.64 1.70 1.42 1.04 0.98 1.06 1.07
0.21 0.18 0.19 0.19 0.23 0.30 0.38 0.54 0.79 1.09 1.37 1.60 1.78 1.98 2.11 2.14 2.11 2.06 2.05 1.99 1.95 1.93 1.96 1.97 2.06 2.10 2.15 2.20 2.37 2.49 2.75 2.78 2.77 2.58 2.37 2.15 1.84 1.50 1.55 1.49 1.22 1.17 1.08
0.25 0.25 0.28 0.34 0.41 0.47 0.61 0.79 0.98 1.27 1.45 1.56 1.67 1.85 2.00 2.05 2.05 2.02 2.02 2.02 2.00 1.90 1.84 1.81 1.88 2.01 2.17 2.22 2.31 2.46 2.70 2.82 2.90 2.81 2.54 2.45 2.28 1.98 1.84 1.59 1.44 1.44 1.23
0.35 0.35 0.43 0.57 0.66 0.69 0.79 0.94 1.04 1.23 1.34 1.38 1.45 1.59 1.65 1.71 1.77 1.75 1.71 1.66 1.62 1.63 1.68 1.75 1.83 1.96 2.07 2.14 2.26 2.40 2.46 2.57 2.81 2.81 2.64 2.43 2.24 2.22 2.09 1.97 1.64 1.46 1.29
0.53 0.62 0.74 0.83 0.90 0.91 0.89 0.93 1.07 1.12 1.10 1.12 1.12 1.25 1.33 1.39 1.45 1.44 1.43 1.46 1.51 1.54 1.50 1.54 1.62 1.83 2.02 2.10 2.20 2.22 2.19 2.24 2.43 2.43 2.49 2.46 2.20 2.14 2.03 2.01 2.08 1.80 1.60
0.77 0.98 1.15 1.25 1.32 1.24 1.06 0.93 0.94 0.94 0.92 0.98 1.02 1.08 1.16 1.20 1.22 1.24 1.19 1.29 1.34 1.35 1.31 1.34 1.37 1.48 1.69 1.94 2.09 2.05 1.96 1.92 2.08 2.15 2.24 2.36 2.39 2.30 2.19 2.14 2.19 2.14 1.89
1.20 1.45 1.67 1.79 1.76 1.57 1.32 1.04 0.88 0.85 0.82 0.86 0.92 0.99 1.02 1.02 1.00 1.04 0.97 1.03 1.12 1.12 1.12 1.12 1.20 1.34 1.45 1.65 1.87 1.96 1.89 1.87 1.93 2.04 2.17 2.30 2.40 2.44 2.24 2.19 2.16 2.02 1.93
1.62 1.77 1.92 1.97 1.71 1.53 1.29 1.04 0.88 0.89 0.91 0.93 0.95 0.94 0.89 0.87 0.85 0.83 0.80 0.84 0.91 0.91 0.94 1.11 1.18 1.24 1.32 1.51 1.78 1.96 1.97 1.89 1.89 1.86 1.94 2.10 2.19 2.40 2.36 2.27 2.16 2.03 1.87
1.39 1.47 1.55 1.51 1.47 1.41 1.23 1.06 0.97 0.97 1.02 1.04 1.06 0.98 0.89 0.82 0.79 0.76 0.68 0.69 0.67 0.67 0.79 0.92 0.97 1.02 1.07 1.25 1.54 1.74 1.78 1.76 1.67 1.64 1.76 1.98 2.14 2.35 2.43 2.38 2.23 2.14 2.01
1.22 1.21 1.23 1.29 1.31 1.27 1.14 1.11 1.07 1.08 1.08 1.08 0.99 0.91 0.82 0.71 0.65 0.57 0.53 0.60 0.61 0.68 0.80 0.89 0.94 0.96 1.02 1.06 1.17 1.33 1.45 1.44 1.39 1.42 1.48 1.53 1.73 2.01 2.17 2.18 2.20 2.24 2.22
0.98 0.98 1.05 1.13 1.19 1.16 1.12 1.06 1.01 1.04 1.14 1.21 1.11 1.00 0.88 0.77 0.68 0.60 0.55 0.55 0.58 0.65 0.74 0.81 0.88 0.94 0.99 1.00 1.00 1.02 1.09 1.11 1.18 1.24 1.27 1.31 1.37 1.60 1.76 1.84 2.03 2.26 2.28
0.66 0.71 0.77 0.78 0.74 0.70 0.75 0.78 0.83 0.94 1.09 1.23 1.21 1.07 0.89 0.77 0.69 0.64 0.56 0.55 0.56 0.57 0.64 0.71 0.74 0.78 0.87 0.96 0.99 0.85 0.81 0.91 1.03 1.05 1.01 1.03 1.11 1.24 1.35 1.41 1.76 2.10 2.29
0.43 0.42 0.44 0.44 0.43 0.39 0.37 0.38 0.46 0.61 0.85 1.11 1.09 0.89 0.71 0.58 0.53 0.54 0.54 0.51 0.49 0.54 0.58 0.57 0.60 0.71 0.75 0.90 0.89 0.73 0.71 0.76 0.86 0.94 0.93 0.82 0.80 0.85 0.94 1.02 1.18 1.46 1.71
0.31 0.30 0.30 0.30 0.29 0.27 0.26 0.28 0.37 0.48 0.64 0.76 0.74 0.65 0.54 0.51 0.54 0.55 0.50 0.49 0.49 0.50 0.52 0.50 0.51 0.56 0.69 0.74 0.61 0.60 0.64 0.71 0.76 0.82 0.87 0.79 0.69 0.76 0.81 0.91 0.99 1.00 1.07
0.22 0.22 0.21 0.21 0.25 0.25 0.29 0.33 0.38 0.42 0.46 0.49 0.51 0.47 0.45 0.46 0.50 0.50 0.49 0.56 0.60 0.57 0.57 0.57 0.56 0.55 0.60 0.60 0.50 0.54 0.57 0.62 0.67 0.76 0.85 0.90 0.82 0.81 0.92 0.93 0.96 0.91 0.87
0.14 0.13 0.12 0.12 0.15 0.15 0.15 0.17 0.19 0.21 0.21 0.20 0.22 0.23 0.22 0.25 0.28 0.29 0.35 0.46 0.53 0.56 0.59 0.62 0.62 0.56 0.53 0.56 0.48 0.50 0.56 0.60 0.65 0.67 0.73 0.82 0.79 0.93 1.02 1.02 1.14 1.12 1.00
0.11 0.10 0.09 0.10 0.11 0.11 0.11 0.10 0.10 0.10 0.10 0.10 0.10 0.13 0.14 0.14 0.15 0.18 0.23 0.29 0.29 0.35 0.45 0.47 0.49 0.52 0.51 0.65 0.53 0.53 0.56 0.64 0.73 0.76 0.73 0.87 0.88 0.96 0.95 0.92 1.15 1.17 1.05
0.11 0.11 0.10 0.10 0.11 0.12 0.11 0.10 0.10 0.10 0.10 0.13 0.15 0.15 0.14 0.14 0.14 0.15 0.18 0.22 0.22 0.26 0.30 0.34 0.39 0.46 0.53 0.66 0.64 0.67 0.67 0.73 0.85 0.83 0.75 0.70 0.83 0.72 0.79 0.82 0.85 1.08 1.08
0.10 0.11 0.09 0.09 0.11 0.11 0.11 0.11 0.11 0.11 0.11 0.12 0.12 0.15 0.15 0.15 0.15 0.15 0.18 0.21 0.23 0.23 0.24 0.25 0.30 0.37 0.43 0.52 0.58 0.59 0.64 0.73 0.81 0.85 0.73 0.71 0.79 0.64 0.61 0.63 0.74 0.92 1.03
0.08 0.09 0.11 0.10 0.11 0.11 0.11 0.10 0.12 0.13 0.12 0.12 0.13 0.15 0.16 0.15 0.14 0.15 0.19 0.21 0.24 0.25 0.26 0.28 0.33 0.40 0.45 0.48 0.48 0.46 0.49 0.56 0.64 0.67 0.71 0.70 0.67 0.61 0.56 0.56 0.63 0.72 0.82
0.08 0.09 0.11 0.12 0.12 0.12 0.12 0.14 0.13 0.12 0.12 0.13 0.15 0.16 0.17 0.17 0.16 0.17 0.19 0.20 0.23 0.27 0.30 0.34 0.38 0.43 0.46 0.48 0.46 0.50 0.53 0.52 0.53 0.53 0.53 0.55 0.58 0.60 0.58 0.57 0.60 0.66 0.78
0.11 0.13 0.14 0.13 0.13 0.14 0.15 0.17 0.17 0.14 0.12 0.13 0.14 0.14 0.15 0.16 0.17 0.18 0.18 0.19 0.20 0.27 0.35 0.40 0.43 0.42 0.41 0.38 0.39 0.50 0.60 0.66 0.71 0.76 0.69 0.68 0.67 0.63 0.59 0.56 0.58 0.62 0.69
0.12 0.14 0.15 0.15 0.14 0.13 0.15 0.16 0.19 0.21 0.21 0.18 0.15 0.14 0.14 0.15 0.16 0.16 0.17 0.19 0.20 0.25 0.29 0.31 0.32 0.32 0.32 0.33 0.35 0.40 0.51 0.60 0.74 0.89 0.88 0.91 0.92 0.85 0.75 0.66 0.59 0.55 0.57

GEFSMW_prec_meanprecacc_252.txt.gz
Total_Precipitation_Accumulation
0.35 0.31 0.27 0.28 0.32 0.36 0.41 0.49 0.55 0.72 0.84 0.91 1.02 1.21 1.38 1.56 1.71 1.80 1.69 1.54 1.51 1.69 1.83 1.77 1.86 1.87 1.75 1.77 1.84 1.89 1.84 1.63 1.47 1.53 1.41 1.13 0.88 0.94 0.91 0.86 0.90 0.95 1.06
0.25 0.21 0.16 0.17 0.21 0.24 0.28 0.35 0.43 0.51 0.65 0.82 1.04 1.25 1.55 1.64 1.71 1.83 1.86 1.79 1.73 1.91 1.96 2.04 2.14 2.18 2.18 2.14 2.03 2.16 2.31 2.03 1.75 1.85 2.14 1.75 1.34 0.97 0.76 0.83 0.86 0.96 1.20
0.18 0.14 0.13 0.13 0.18 0.19 0.20 0.27 0.39 0.51 0.73 0.98 1.29 1.59 1.85 1.93 1.97 1.91 1.94 2.01 2.06 2.14 2.17 2.22 2.29 2.32 2.17 2.17 2.28 2.42 2.76 2.56 2.18 1.97 2.22 2.07 1.75 1.42 0.98 0.87 0.91 0.99 1.17
0.17 0.14 0.14 0.14 0.15 0.18 0.23 0.36 0.52 0.71 0.98 1.31 1.67 1.92 2.18 2.30 2.13 2.08 2.09 2.09 2.05 2.08 2.19 2.20 2.20 2.17 2.11 2.19 2.26 2.32 2.73 2.93 2.64 2.29 1.90 1.69 1.65 1.73 1.45 1.05 0.99 1.06 1.07
0.22 0.19 0.20 0.21 0.25 0.32 0.39 0.55 0.80 1.09 1.37 1.60 1.80 2.02 2.16 2.19 2.14 2.07 2.06 1.99 1.96 1.94 1.98 2.00 2.09 2.11 2.16 2.21 2.37 2.50 2.77 2.80 2.79 2.61 2.39 2.17 1.85 1.51 1.57 1.52 1.24 1.18 1.08
0.26 0.26 0.28 0.36 0.43 0.49 0.63 0.81 1.00 1.29 1.46 1.57 1.68 1.86 2.02 2.07 2.07 2.04 2.04 2.04 2.02 1.92 1.85 1.82 1.89 2.03 2.18 2.23 2.32 2.48 2.72 2.83 2.91 2.82 2.55 2.46 2.29 2.00 1.87 1.61 1.46 1.45 1.24
0.36 0.35 0.43 0.58 0.67 0.71 0.81 0.97 1.06 1.25 1.36 1.38 1.46 1.60 1.67 1.73 1.77 1.77 1.73 1.67 1.64 1.64 1.68 1.76 1.84 1.98 2.08 2.15 2.27 2.42 2.47 2.59 2.82 2.82 2.64 2.44 2.25 2.23 2.10 1.98 1.66 1.48 1.30
0.53 0.62 0.74 0.84 0.91 0.93 0.90 0.94 1.09 1.13 1.12 1.13 1.13 1.25 1.33 1.39 1.46 1.45 1.43 1.47 1.52 1.55 1.51 1.55 1.63 1.84 2.03 2.11 2.21 2.23 2.20 2.26 2.44 2.43 2.49 2.47 2.20 2.15 2.04 2.02 2.09 1.82 1.62
0.77 0.98 1.15 1.26 1.33 1.26 1.07 0.94 0.95 0.95 0.94 1.01 1.03 1.09 1.17 1.20 1.22 1.25 1.20 1.29 1.34 1.35 1.31 1.35 1.38 1.48 1.70 1.94 2.10 2.06 1.97 1.94 2.09 2.16 2.25 2.37 2.40 2.31 2.20 2.16 2.21 2.16 1.91
1.20 1.46 1.68 1.79 1.76 1.58 1.32 1.05 0.90 0.86 0.84 0.88 0.94 1.00 1.03 1.03 1.01 1.05 0.98 1.03 1.13 1.13 1.12 1.13 1.20 1.34 1.45 1.65 1.87 1.97 1.90 1.88 1.94 2.05 2.18 2.30 2.40 2.45 2.25 2.20 2.17 2.03 1.95
1.63 1.78 1.94 1.98 1.72 1.54 1.30 1.05 0.90 0.91 0.93 0.94 0.96 0.96 0.91 0.89 0.87 0.84 0.81 0.85 0.92 0.91 0.94 1.12 1.18 1.24 1.32 1.52 1.79 1.96 1.97 1.89 1.89 1.86 1.94 2.11 2.20 2.41 2.37 2.28 2.17 2.04 1.88
1.41 1.49 1.57 1.53 1.49 1.43 1.24 1.07 0.98 0.99 1.04 1.06 1.07 0.99 0.91 0.85 0.80 0.77 0.69 0.70 0.68 0.67 0.79 0.92 0.97 1.03 1.07 1.25 1.54 1.74 1.79 1.77 1.68 1.65 1.77 1.98 2.15 2.36 2.44 2.39 2.24 2.15 2.02
1.24 1.23 1.25 1.30 1.33 1.30 1.16 1.13 1.09 1.10 1.10 1.10 1.01 0.93 0.85 0.74 0.66 0.58 0.54 0.60 0.62 0.69 0.80 0.89 0.94 0.97 1.03 1.07 1.17 1.33 1.46 1.45 1.40 1.43 1.49 1.54 1.74 2.02 2.18 2.19 2.21 2.24 2.22
0.99 0.98 1.06 1.14 1.20 1.17 1.13 1.08 1.02 1.06 1.16 1.22 1.13 1.02 0.90 0.78 0.71 0.62 0.57 0.55 0.58 0.65 0.74 0.82 0.88 0.95 1.00 1.01 1.02 1.04 1.11 1.13 1.19 1.25 1.28 1.32 1.38 1.61 1.78 1.86 2.04 2.27 2.29
0.66 0.71 0.77 0.78 0.75 0.71 0.76 0.79 0.84 0.95 1.10 1.24 1.23 1.09 0.91 0.78 0.71 0.66 0.58 0.56 0.57 0.57 0.65 0.72 0.74 0.79 0.88 0.97 1.00 0.87 0.83 0.93 1.04 1.06 1.01 1.04 1.13 1.26 1.37 1.43 1.78 2.13 2.31
0.43 0.42 0.44 0.44 0.43 0.39 0.37 0.38 0.46 0.62 0.86 1.12 1.10 0.91 0.73 0.60 0.54 0.55 0.54 0.52 0.50 0.55 0.60 0.57 0.61 0.71 0.75 0.91 0.90 0.74 0.72 0.77 0.87 0.96 0.94 0.83 0.81 0.86 0.95 1.03 1.20 1.48 1.73
0.31 0.30 0.30 0.30 0.29 0.28 0.27 0.29 0.37 0.49 0.65 0.77 0.75 0.66 0.55 0.52 0.55 0.56 0.51 0.50 0.50 0.51 0.53 0.51 0.51 0.56 0.70 0.75 0.62 0.61 0.65 0.71 0.77 0.83 0.89 0.81 0.70 0.77 0.82 0.92 1.00 1.01 1.09
0.22 0.22 0.21 0.22 0.25 0.26 0.30 0.34 0.38 0.43 0.47 0.50 0.52 0.47 0.45 0.47 0.50 0.51 0.50 0.57 0.61 0.59 0.58 0.60 0.57 0.55 0.61 0.61 0.50 0.55 0.57 0.63 0.68 0.77 0.86 0.91 0.84 0.83 0.94 0.94 0.97 0.92 0.88
0.14 0.13 0.12 0.13 0.15 0.15 0.16 0.17 0.20 0.21 0.22 0.21 0.22 0.23 0.23 0.26 0.28 0.29 0.36 0.47 0.54 0.57 0.61 0.64 0.64 0.57 0.55 0.58 0.49 0.51 0.56 0.61 0.66 0.68 0.75 0.83 0.81 0.95 1.05 1.04 1.16 1.14 1.02
0.11 0.10 0.09 0.10 0.12 0.12 0.12 0.10 0.10 0.11 0.11 0.10 0.11 0.13 0.14 0.15 0.15 0.18 0.23 0.29 0.30 0.36 0.46 0.49 0.51 0.55 0.53 0.67 0.56 0.55 0.57 0.65 0.74 0.77 0.75 0.89 0.90 1.00 0.98 0.95 1.18 1.20 1.08
0.11 0.11 0.10 0.10 0.11 0.12 0.12 0.11 0.11 0.10 0.12 0.14 0.16 0.17 0.16 0.16 0.16 0.16 0.19 0.23 0.23 0.27 0.31 0.35 0.40 0.48 0.56 0.70 0.67 0.69 0.68 0.73 0.86 0.84 0.77 0.72 0.85 0.74 0.82 0.86 0.88 1.10 1.11
0.10 0.11 0.10 0.10 0.11 0.12 0.12 0.12 0.13 0.13 0.13 0.14 0.15 0.16 0.16 0.17 0.16 0.17 0.20 0.23 0.25 0.24 0.25 0.26 0.31 0.38 0.44 0.54 0.60 0.61 0.65 0.74 0.82 0.86 0.75 0.73 0.81 0.65 0.64 0.65 0.77 0.95 1.06
0.08 0.09 0.11 0.11 0.12 0.12 0.12 0.11 0.13 0.14 0.14 0.14 0.15 0.17 0.18 0.17 0.15 0.17 0.20 0.22 0.25 0.26 0.28 0.29 0.34 0.41 0.45 0.49 0.49 0.48 0.51 0.57 0.65 0.68 0.72 0.72 0.69 0.63 0.58 0.58 0.66 0.74 0.85
0.08 0.09 0.11 0.12 0.13 0.14 0.13 0.15 0.14 0.13 0.13 0.15 0.16 0.18 0.18 0.18 0.18 0.19 0.20 0.22 0.24 0.28 0.31 0.36 0.39 0.44 0.47 0.49 0.47 0.51 0.55 0.53 0.54 0.55 0.55 0.57 0.60 0.62 0.60 0.59 0.62 0.68 0.79
0.11 0.14 0.14 0.14 0.14 0.15 0.16 0.18 0.18 0.15 0.13 0.14 0.15 0.15 0.16 0.17 0.18 0.18 0.19 0.20 0.21 0.27 0.36 0.41 0.44 0.43 0.41 0.39 0.41 0.52 0.61 0.67 0.73 0.78 0.70 0.69 0.68 0.65 0.60 0.57 0.59 0.63 0.70
0.12 0.15 0.16 0.16 0.15 0.15 0.17 0.18 0.20 0.22 0.22 0.19 0.16 0.15 0.15 0.16 0.16 0.17 0.18 0.20 0.21 0.26 0.30 0.31 0.33 0.33 0.33 0.34 0.36 0.41 0.52 0.62 0.76 0.91 0.90 0.93 0.93 0.87 0.77 0.67 0.60 0.56 0.57

GEFSMW_prec_meanprecacc_258.txt.gz
Total_Precipitation_Accumulation
0.37 0.34 0.29 0.29 0.33 0.37 0.44 0.52 0.59 0.76 0.88 0.96 1.07 1.24 1.40 1.57 1.73 1.83 1.71 1.55 1.52 1.69 1.84 1.78 1.87 1.88 1.76 1.78 1.84 1.89 1.86 1.65 1.50 1.55 1.44 1.15 0.90 0.96 0.92 0.87 0.90 0.95 1.06
0.26 0.22 0.19 0.20 0.23 0.26 0.30 0.38 0.47 0.54 0.67 0.85 1.10 1.31 1.58 1.66 1.74 1.86 1.89 1.81 1.74 1.92 1.97 2.05 2.15 2.19 2.19 2.14 2.04 2.17 2.32 2.04 1.77 1.88 2.16 1.77 1.36 0.98 0.77 0.83 0.87 0.96 1.20
0.19 0.15 0.14 0.17 0.21 0.21 0.22 0.30 0.42 0.54 0.76 1.00 1.33 1.62 1.88 1.96 2.00 1.94 1.96 2.02 2.07 2.16 2.19 2.23 2.30 2.32 2.17 2.18 2.29 2.43 2.77 2.57 2.19 1.98 2.24 2.08 1.76 1.43 0.99 0.88 0.92 1.00 1.17
0.18 0.15 0.15 0.15 0.17 0.21 0.26 0.38 0.56 0.75 1.00 1.33 1.70 1.96 2.21 2.33 2.16 2.10 2.11 2.10 2.07 2.12 2.23 2.22 2.21 2.19 2.12 2.19 2.26 2.32 2.73 2.93 2.64 2.30 1.91 1.70 1.66 1.73 1.45 1.06 0.99 1.07 1.07
0.23 0.20 0.21 0.22 0.27 0.35 0.43 0.59 0.86 1.16 1.42 1.64 1.83 2.05 2.19 2.22 2.17 2.09 2.07 2.01 1.99 1.97 2.00 2.01 2.10 2.12 2.16 2.22 2.38 2.51 2.78 2.80 2.80 2.62 2.40 2.18 1.86 1.51 1.58 1.52 1.25 1.18 1.08
0.28 0.28 0.30 0.37 0.45 0.52 0.67 0.85 1.05 1.34 1.52 1.63 1.72 1.90 2.04 2.09 2.08 2.05 2.05 2.05 2.02 1.93 1.86 1.83 1.91 2.04 2.19 2.23 2.33 2.49 2.73 2.84 2.92 2.83 2.56 2.47 2.30 2.01 1.88 1.61 1.46 1.46 1.24
0.38 0.38 0.48 0.63 0.70 0.74 0.84 1.00 1.09 1.29 1.40 1.44 1.51 1.63 1.69 1.75 1.78 1.77 1.74 1.68 1.65 1.65 1.69 1.77 1.85 1.99 2.09 2.16 2.28 2.43 2.48 2.60 2.83 2.83 2.66 2.45 2.26 2.24 2.11 1.98 1.66 1.48 1.30
0.54 0.64 0.78 0.88 0.95 0.97 0.94 0.96 1.11 1.16 1.16 1.21 1.19 1.29 1.36 1.42 1.47 1.45 1.44 1.47 1.53 1.56 1.51 1.56 1.64 1.85 2.04 2.12 2.22 2.23 2.21 2.27 2.45 2.44 2.50 2.48 2.22 2.17 2.06 2.03 2.10 1.82 1.62
0.79 1.01 1.18 1.28 1.36 1.29 1.12 0.99 0.98 0.98 0.96 1.06 1.12 1.15 1.21 1.24 1.25 1.27 1.20 1.29 1.35 1.36 1.32 1.36 1.39 1.49 1.71 1.95 2.11 2.07 1.98 1.94 2.10 2.16 2.25 2.38 2.41 2.32 2.21 2.16 2.22 2.16 1.92
1.22 1.48 1.70 1.82 1.79 1.61 1.36 1.10 0.95 0.89 0.87 0.92 1.02 1.09 1.09 1.08 1.05 1.07 0.99 1.04 1.14 1.15 1.14 1.14 1.21 1.35 1.46 1.66 1.89 1.98 1.92 1.89 1.96 2.06 2.19 2.31 2.41 2.46 2.26 2.22 2.18 2.04 1.96
1.65 1.81 1.97 2.01 1.75 1.58 1.34 1.09 0.94 0.94 0.97 1.00 1.02 1.03 0.98 0.96 0.93 0.89 0.84 0.86 0.93 0.93 0.95 1.12 1.18 1.25 1.33 1.53 1.80 1.97 1.98 1.91 1.91 1.88 1.95 2.12 2.21 2.42 2.38 2.29 2.18 2.05 1.89
1.43 1.52 1.60 1.56 1.51 1.46 1.29 1.12 1.03 1.02 1.07 1.10 1.12 1.04 0.96 0.90 0.90 0.85 0.74 0.73 0.70 0.69 0.80 0.93 0.98 1.03 1.08 1.27 1.55 1.75 1.80 1.78 1.70 1.67 1.80 2.01 2.17 2.37 2.47 2.41 2.25 2.16 2.03
1.24 1.24 1.26 1.32 1.35 1.31 1.19 1.16 1.13 1.14 1.14 1.13 1.05 0.97 0.89 0.80 0.76 0.66 0.59 0.64 0.65 0.71 0.82 0.91 0.95 0.99 1.05 1.09 1.19 1.35 1.47 1.47 1.42 1.45 1.51 1.55 1.75 2.03 2.20 2.22 2.23 2.27 2.24
0.99 0.98 1.06 1.15 1.21 1.18 1.14 1.09 1.04 1.09 1.19 1.25 1.16 1.05 0.94 0.84 0.80 0.70 0.61 0.59 0.61 0.68 0.77 0.83 0.90 0.96 1.01 1.02 1.03 1.06 1.13 1.14 1.20 1.26 1.29 1.33 1.39 1.62 1.79 1.88 2.06 2.29 2.31
0.67 0.71 0.77 0.78 0.75 0.71 0.76 0.80 0.85 0.96 1.11 1.25 1.24 1.11 0.94 0.83 0.77 0.73 0.65 0.62 0.61 0.61 0.69 0.75 0.76 0.80 0.89 0.98 1.01 0.89 0.85 0.95 1.06 1.07 1.03 1.05 1.13 1.27 1.39 1.44 1.80 2.15 2.33
0.43 0.42 0.44 0.44 0.43 0.39 0.38 0.40 0.47 0.62 0.87 1.13 1.11 0.92 0.76 0.62 0.58 0.60 0.61 0.60 0.57 0.59 0.63 0.60 0.63 0.72 0.76 0.91 0.91 0.75 0.75 0.80 0.90 0.98 0.95 0.83 0.82 0.87 0.96 1.05 1.22 1.50 1.74
0.31 0.31 0.31 0.30 0.30 0.29 0.29 0.31 0.38 0.50 0.66 0.78 0.76 0.67 0.56 0.53 0.57 0.60 0.55 0.57 0.58 0.57 0.57 0.54 0.54 0.58 0.71 0.76 0.62 0.62 0.66 0.73 0.79 0.86 0.90 0.81 0.70 0.78 0.83 0.93 1.01 1.02 1.09
0.23 0.22 0.22 0.22 0.26 0.27 0.31 0.35 0.39 0.44 0.48 0.51 0.53 0.48 0.46 0.48 0.51 0.52 0.52 0.59 0.65 0.63 0.62 0.63 0.60 0.58 0.64 0.64 0.52 0.55 0.58 0.64 0.69 0.78 0.88 0.92 0.84 0.84 0.95 0.95 0.98 0.93 0.89
0.15 0.14 0.13 0.13 0.16 0.16 0.17 0.18 0.20 0.22 0.23 0.21 0.22 0.24 0.24 0.26 0.29 0.30 0.37 0.48 0.55 0.59 0.63 0.68 0.67 0.60 0.57 0.62 0.53 0.53 0.57 0.62 0.66 0.68 0.76 0.84 0.82 0.96 1.07 1.05 1.18 1.15 1.02
0.11 0.11 0.10 0.11 0.12 0.13 0.12 0.10 0.11 0.11 0.12 0.11 0.12 0.14 0.15 0.15 0.16 0.20 0.25 0.30 0.32 0.38 0.49 0.51 0.53 0.57 0.55 0.71 0.60 0.59 0.60 0.66 0.75 0.78 0.75 0.90 0.91 1.01 0.99 0.97 1.20 1.21 1.08
0.11 0.12 0.11 0.11 0.12 0.13 0.12 0.12 0.12 0.11 0.13 0.16 0.18 0.18 0.17 0.18 0.19 0.20 0.23 0.26 0.27 0.31 0.34 0.38 0.42 0.50 0.58 0.72 0.71 0.74 0.72 0.76 0.88 0.85 0.78 0.73 0.86 0.75 0.83 0.87 0.90 1.12 1.12
0.11 0.11 0.11 0.11 0.12 0.12 0.12 0.13 0.14 0.14 0.14 0.16 0.17 0.19 0.20 0.20 0.20 0.21 0.23 0.26 0.27 0.27 0.29 0.29 0.34 0.40 0.46 0.55 0.62 0.64 0.68 0.77 0.85 0.89 0.77 0.74 0.82 0.67 0.65 0.67 0.78 0.97 1.08
0.08 0.10 0.11 0.11 0.13 0.13 0.12 0.12 0.14 0.15 0.15 0.16 0.17 0.19 0.21 0.21 0.19 0.21 0.24 0.25 0.27 0.29 0.31 0.33 0.37 0.43 0.47 0.51 0.50 0.49 0.53 0.60 0.67 0.70 0.74 0.74 0.71 0.65 0.60 0.60 0.69 0.77 0.87
0.09 0.09 0.11 0.13 0.14 0.14 0.14 0.16 0.16 0.15 0.15 0.17 0.19 0.20 0.20 0.20 0.19 0.20 0.22 0.24 0.27 0.30 0.33 0.38 0.41 0.45 0.48 0.50 0.49 0.53 0.56 0.55 0.56 0.56 0.56 0.58 0.62 0.65 0.62 0.61 0.64 0.71 0.82
0.11 0.14 0.15 0.14 0.14 0.16 0.18 0.21 0.21 0.18 0.16 0.17 0.18 0.17 0.17 0.18 0.19 0.20 0.20 0.21 0.23 0.29 0.38 0.43 0.46 0.45 0.43 0.41 0.43 0.53 0.62 0.69 0.74 0.80 0.71 0.70 0.70 0.68 0.62 0.59 0.60 0.65 0.72
0.13 0.15 0.17 0.17 0.16 0.16 0.18 0.20 0.23 0.24 0.23 0.20 0.17 0.16 0.16 0.17 0.17 0.18 0.19 0.21 0.22 0.28 0.31 0.33 0.34 0.34 0.35 0.36 0.37 0.43 0.54 0.64 0.78 0.94 0.92 0.94 0.95 0.89 0.79 0.69 0.61 0.58 0.60

GEFSMW_prec_meanprecacc_264.txt.gz
Total_Precipitation_Accumulation
0.42 0.39 0.34 0.35 0.39 0.43 0.48 0.56 0.64 0.81 0.91 0.97 1.09 1.27 1.44 1.60 1.76 1.85 1.73 1.57 1.54 1.73 1.87 1.80 1.88 1.89 1.77 1.78 1.85 1.90 1.86 1.66 1.51 1.57 1.47 1.18 0.93 0.99 0.96 0.90 0.93 0.98 1.08
0.27 0.24 0.21 0.23 0.26 0.28 0.33 0.41 0.50 0.57 0.69 0.87 1.12 1.33 1.60 1.68 1.77 1.88 1.92 1.83 1.77 1.96 2.00 2.07 2.17 2.19 2.19 2.14 2.04 2.17 2.32 2.04 1.78 1.88 2.18 1.80 1.39 1.00 0.80 0.86 0.90 1.00 1.22
0.20 0.15 0.15 0.18 0.23 0.23 0.24 0.32 0.43 0.56 0.79 1.02 1.34 1.63 1.89 1.97 2.02 1.96 1.99 2.04 2.09 2.18 2.22 2.27 2.33 2.34 2.18 2.18 2.29 2.44 2.78 2.58 2.20 1.98 2.24 2.10 1.78 1.45 1.00 0.90 0.94 1.03 1.19
0.18 0.15 0.16 0.16 0.19 0.23 0.28 0.40 0.58 0.77 1.03 1.35 1.72 1.98 2.22 2.34 2.18 2.12 2.13 2.12 2.09 2.14 2.26 2.25 2.24 2.21 2.15 2.21 2.28 2.33 2.76 2.95 2.65 2.30 1.92 1.71 1.67 1.75 1.47 1.07 1.00 1.07 1.08
0.23 0.20 0.22 0.23 0.28 0.36 0.45 0.62 0.89 1.19 1.45 1.68 1.86 2.08 2.22 2.24 2.19 2.11 2.10 2.04 2.01 2.00 2.02 2.02 2.11 2.14 2.18 2.24 2.40 2.52 2.79 2.81 2.80 2.62 2.41 2.19 1.87 1.53 1.59 1.54 1.26 1.19 1.09
0.28 0.29 0.31 0.38 0.46 0.54 0.69 0.87 1.07 1.37 1.56 1.68 1.78 1.94 2.09 2.13 2.11 2.09 2.07 2.08 2.05 1.95 1.88 1.84 1.92 2.05 2.19 2.25 2.34 2.50 2.74 2.85 2.92 2.83 2.56 2.47 2.31 2.01 1.89 1.63 1.48 1.46 1.24
0.39 0.39 0.49 0.64 0.71 0.76 0.86 1.02 1.12 1.32 1.43 1.48 1.57 1.70 1.76 1.80 1.82 1.80 1.76 1.70 1.66 1.66 1.70 1.78 1.87 2.01 2.10 2.17 2.30 2.44 2.50 2.61 2.84 2.84 2.66 2.45 2.27 2.25 2.11 1.99 1.66 1.49 1.30
0.55 0.66 0.80 0.89 0.96 0.98 0.96 1.00 1.15 1.19 1.19 1.24 1.24 1.34 1.43 1.48 1.52 1.49 1.47 1.50 1.54 1.56 1.52 1.57 1.65 1.87 2.06 2.13 2.23 2.24 2.22 2.28 2.47 2.46 2.52 2.49 2.22 2.18 2.06 2.03 2.10 1.83 1.62
0.80 1.02 1.20 1.30 1.38 1.31 1.15 1.02 1.01 1.00 0.99 1.09 1.16 1.20 1.26 1.30 1.30 1.31 1.24 1.31 1.36 1.37 1.33 1.36 1.40 1.52 1.74 1.97 2.13 2.08 2.00 1.96 2.12 2.18 2.27 2.39 2.42 2.33 2.22 2.17 2.23 2.17 1.92
1.22 1.49 1.72 1.84 1.81 1.62 1.37 1.12 0.96 0.91 0.89 0.96 1.06 1.14 1.14 1.14 1.12 1.13 1.05 1.09 1.17 1.16 1.14 1.15 1.22 1.37 1.50 1.69 1.91 2.00 1.94 1.92 1.97 2.08 2.20 2.33 2.43 2.48 2.27 2.23 2.20 2.05 1.97
1.65 1.81 1.97 2.02 1.76 1.59 1.35 1.10 0.95 0.96 0.98 1.02 1.06 1.08 1.03 1.01 1.00 0.96 0.89 0.93 0.98 0.95 0.96 1.14 1.20 1.27 1.35 1.55 1.82 1.99 2.01 1.93 1.93 1.89 1.96 2.14 2.23 2.44 2.40 2.31 2.20 2.06 1.91
1.43 1.52 1.60 1.56 1.52 1.47 1.29 1.12 1.03 1.03 1.08 1.11 1.15 1.09 0.99 0.94 0.95 0.92 0.82 0.79 0.76 0.73 0.82 0.95 1.00 1.05 1.10 1.28 1.57 1.76 1.81 1.80 1.71 1.68 1.80 2.01 2.18 2.39 2.48 2.43 2.26 2.17 2.04
1.24 1.24 1.26 1.32 1.35 1.32 1.19 1.17 1.14 1.15 1.15 1.14 1.06 0.99 0.92 0.83 0.79 0.71 0.65 0.70 0.70 0.76 0.86 0.93 0.97 1.00 1.06 1.10 1.20 1.36 1.48 1.48 1.44 1.47 1.53 1.57 1.77 2.04 2.22 2.23 2.24 2.29 2.26
0.99 0.98 1.06 1.15 1.21 1.18 1.14 1.09 1.05 1.09 1.19 1.26 1.18 1.07 0.96 0.87 0.83 0.73 0.65 0.63 0.65 0.73 0.82 0.86 0.92 0.99 1.03 1.04 1.05 1.07 1.14 1.15 1.21 1.28 1.31 1.35 1.41 1.64 1.81 1.90 2.08 2.31 2.33
0.67 0.71 0.77 0.78 0.75 0.71 0.77 0.81 0.87 0.97 1.13 1.27 1.25 1.12 0.96 0.85 0.80 0.76 0.68 0.65 0.65 0.65 0.73 0.79 0.78 0.82 0.91 1.00 1.03 0.91 0.87 0.96 1.07 1.09 1.04 1.06 1.15 1.29 1.41 1.46 1.81 2.16 2.34
0.43 0.42 0.44 0.44 0.43 0.39 0.39 0.41 0.49 0.64 0.88 1.14 1.12 0.92 0.76 0.64 0.59 0.62 0.63 0.62 0.59 0.63 0.68 0.66 0.68 0.76 0.79 0.94 0.93 0.77 0.76 0.82 0.91 0.99 0.96 0.85 0.83 0.88 0.98 1.06 1.23 1.51 1.75
0.31 0.31 0.31 0.30 0.30 0.30 0.29 0.32 0.39 0.50 0.67 0.79 0.77 0.68 0.57 0.54 0.58 0.61 0.56 0.57 0.59 0.59 0.61 0.60 0.59 0.63 0.76 0.81 0.66 0.65 0.68 0.75 0.81 0.87 0.92 0.82 0.71 0.79 0.84 0.95 1.02 1.03 1.10
0.23 0.22 0.22 0.22 0.26 0.27 0.31 0.35 0.40 0.44 0.48 0.51 0.53 0.49 0.47 0.48 0.52 0.53 0.53 0.61 0.67 0.65 0.65 0.66 0.64 0.62 0.69 0.68 0.56 0.61 0.62 0.67 0.71 0.81 0.90 0.94 0.85 0.85 0.95 0.96 0.99 0.94 0.89
0.15 0.14 0.13 0.13 0.16 0.16 0.17 0.18 0.21 0.23 0.24 0.23 0.24 0.25 0.25 0.28 0.30 0.31 0.38 0.50 0.57 0.61 0.66 0.71 0.70 0.62 0.60 0.64 0.55 0.57 0.61 0.65 0.69 0.71 0.78 0.86 0.83 0.97 1.08 1.06 1.18 1.16 1.03
0.12 0.11 0.10 0.11 0.13 0.13 0.12 0.11 0.12 0.12 0.13 0.13 0.14 0.16 0.18 0.17 0.17 0.21 0.26 0.32 0.33 0.40 0.51 0.53 0.56 0.59 0.57 0.73 0.62 0.61 0.62 0.68 0.78 0.81 0.78 0.93 0.94 1.03 1.01 0.98 1.20 1.22 1.09
0.12 0.12 0.11 0.11 0.12 0.14 0.13 0.12 0.12 0.12 0.13 0.16 0.19 0.20 0.19 0.20 0.21 0.23 0.25 0.27 0.28 0.32 0.36 0.40 0.44 0.52 0.61 0.75 0.73 0.76 0.74 0.78 0.90 0.88 0.81 0.76 0.89 0.78 0.86 0.89 0.91 1.13 1.13
0.11 0.12 0.11 0.12 0.13 0.13 0.13 0.13 0.14 0.14 0.14 0.17 0.18 0.21 0.22 0.23 0.23 0.24 0.27 0.29 0.30 0.29 0.31 0.32 0.36 0.42 0.48 0.58 0.65 0.66 0.70 0.79 0.87 0.91 0.80 0.78 0.86 0.70 0.68 0.70 0.81 0.99 1.10
0.09 0.10 0.12 0.12 0.13 0.14 0.13 0.13 0.15 0.16 0.16 0.17 0.18 0.20 0.22 0.22 0.20 0.22 0.26 0.28 0.30 0.31 0.33 0.35 0.40 0.45 0.49 0.53 0.53 0.51 0.54 0.61 0.69 0.71 0.76 0.77 0.75 0.69 0.64 0.64 0.73 0.81 0.90
0.09 0.10 0.12 0.13 0.15 0.15 0.15 0.17 0.17 0.16 0.16 0.18 0.19 0.20 0.21 0.21 0.20 0.21 0.23 0.25 0.28 0.31 0.35 0.40 0.44 0.49 0.51 0.53 0.51 0.55 0.58 0.56 0.57 0.57 0.57 0.59 0.64 0.67 0.64 0.63 0.67 0.75 0.86
0.12 0.14 0.15 0.15 0.15 0.17 0.18 0.21 0.21 0.18 0.17 0.17 0.18 0.18 0.18 0.19 0.20 0.20 0.21 0.22 0.24 0.30 0.39 0.44 0.48 0.47 0.45 0.43 0.45 0.56 0.65 0.71 0.76 0.80 0.72 0.71 0.71 0.69 0.64 0.61 0.62 0.68 0.76
0.13 0.15 0.17 0.17 0.16 0.17 0.19 0.21 0.23 0.25 0.24 0.21 0.18 0.17 0.17 0.18 0.18 0.19 0.20 0.22 0.23 0.29 0.33 0.34 0.35 0.36 0.36 0.38 0.39 0.45 0.56 0.66 0.79 0.95 0.92 0.95 0.96 0.90 0.80 0.70 0.63 0.60 0.62

GEFSMW_prec_meanprecacc_270.txt.gz
Total_Precipitation_Accumulation
0.44 0.42 0.38 0.39 0.43 0.46 0.51 0.59 0.68 0.86 0.96 1.01 1.12 1.31 1.47 1.64 1.79 1.88 1.76 1.59 1.56 1.74 1.88 1.81 1.89 1.90 1.78 1.80 1.87 1.91 1.87 1.66 1.51 1.57 1.47 1.18 0.93 0.99 0.96 0.91 0.95 1.00 1.10
0.30 0.27 0.25 0.27 0.28 0.30 0.34 0.42 0.52 0.60 0.75 0.91 1.16 1.36 1.64 1.71 1.80 1.92 1.96 1.87 1.80 1.99 2.02 2.08 2.18 2.20 2.20 2.15 2.05 2.18 2.32 2.04 1.78 1.88 2.18 1.80 1.39 1.01 0.80 0.87 0.91 1.01 1.24
0.20 0.16 0.16 0.19 0.24 0.23 0.24 0.32 0.44 0.57 0.80 1.04 1.37 1.66 1.92 2.00 2.06 2.00 2.02 2.08 2.12 2.20 2.24 2.28 2.34 2.36 2.19 2.19 2.30 2.44 2.79 2.59 2.20 1.98 2.25 2.10 1.79 1.45 1.01 0.90 0.94 1.03 1.20
0.19 0.16 0.16 0.17 0.19 0.23 0.28 0.40 0.58 0.78 1.04 1.36 1.75 2.02 2.26 2.38 2.22 2.16 2.16 2.15 2.11 2.15 2.27 2.27 2.25 2.23 2.16 2.22 2.28 2.34 2.77 2.97 2.67 2.31 1.92 1.71 1.68 1.75 1.47 1.07 1.00 1.08 1.09
0.24 0.21 0.22 0.24 0.28 0.37 0.45 0.62 0.89 1.19 1.46 1.69 1.88 2.11 2.25 2.27 2.22 2.15 2.14 2.06 2.02 2.01 2.03 2.03 2.13 2.16 2.20 2.26 2.41 2.54 2.81 2.83 2.82 2.63 2.41 2.19 1.87 1.53 1.60 1.54 1.26 1.19 1.09
0.29 0.29 0.31 0.39 0.46 0.54 0.69 0.88 1.08 1.38 1.56 1.69 1.79 1.95 2.10 2.16 2.15 2.12 2.12 2.13 2.09 1.99 1.91 1.86 1.93 2.06 2.21 2.26 2.36 2.52 2.76 2.86 2.94 2.84 2.57 2.48 2.32 2.02 1.90 1.63 1.48 1.47 1.25
0.39 0.40 0.50 0.64 0.71 0.76 0.86 1.03 1.13 1.33 1.44 1.49 1.59 1.72 1.78 1.82 1.85 1.85 1.83 1.75 1.72 1.72 1.75 1.81 1.88 2.02 2.12 2.19 2.31 2.46 2.51 2.62 2.85 2.85 2.67 2.46 2.27 2.25 2.12 1.99 1.67 1.49 1.31
0.55 0.66 0.80 0.89 0.96 0.99 0.97 1.01 1.16 1.21 1.20 1.25 1.25 1.35 1.44 1.50 1.54 1.51 1.51 1.55 1.59 1.61 1.57 1.60 1.67 1.88 2.07 2.15 2.24 2.26 2.24 2.29 2.47 2.47 2.53 2.50 2.23 2.18 2.07 2.04 2.11 1.84 1.63
0.80 1.02 1.20 1.30 1.38 1.32 1.15 1.03 1.03 1.02 1.01 1.11 1.17 1.21 1.27 1.31 1.31 1.32 1.26 1.35 1.39 1.40 1.36 1.39 1.41 1.53 1.75 1.99 2.14 2.09 2.01 1.97 2.13 2.19 2.28 2.41 2.43 2.34 2.23 2.18 2.24 2.19 1.94
1.22 1.49 1.73 1.84 1.81 1.63 1.39 1.13 0.98 0.92 0.90 0.97 1.07 1.15 1.15 1.15 1.13 1.14 1.07 1.11 1.20 1.20 1.17 1.17 1.24 1.38 1.51 1.70 1.92 2.01 1.94 1.93 1.98 2.09 2.21 2.35 2.45 2.49 2.28 2.24 2.20 2.06 1.98
1.65 1.81 1.98 2.03 1.76 1.59 1.36 1.10 0.95 0.96 0.98 1.03 1.07 1.09 1.05 1.02 1.01 0.97 0.91 0.96 1.02 0.99 1.00 1.16 1.22 1.28 1.37 1.57 1.83 2.00 2.01 1.94 1.94 1.90 1.97 2.15 2.24 2.46 2.42 2.32 2.21 2.07 1.92
1.43 1.52 1.60 1.56 1.52 1.47 1.29 1.12 1.04 1.03 1.08 1.11 1.16 1.10 1.01 0.96 0.96 0.93 0.84 0.82 0.78 0.76 0.86 0.98 1.02 1.07 1.11 1.30 1.58 1.77 1.82 1.81 1.73 1.70 1.81 2.02 2.20 2.41 2.51 2.45 2.28 2.19 2.05
1.25 1.24 1.26 1.32 1.35 1.32 1.19 1.17 1.14 1.15 1.15 1.15 1.06 1.00 0.94 0.85 0.81 0.72 0.66 0.72 0.72 0.78 0.88 0.95 1.00 1.02 1.07 1.12 1.22 1.38 1.50 1.49 1.45 1.48 1.55 1.58 1.78 2.07 2.25 2.26 2.28 2.31 2.27
0.99 0.99 1.06 1.15 1.21 1.18 1.14 1.09 1.05 1.10 1.20 1.27 1.19 1.08 0.97 0.87 0.83 0.74 0.65 0.63 0.66 0.75 0.84 0.88 0.95 1.02 1.06 1.07 1.08 1.10 1.16 1.16 1.23 1.30 1.33 1.37 1.43 1.66 1.84 1.92 2.11 2.34 2.36
0.67 0.71 0.77 0.78 0.75 0.71 0.77 0.81 0.87 0.98 1.13 1.27 1.26 1.12 0.96 0.85 0.80 0.77 0.68 0.66 0.65 0.66 0.75 0.80 0.80 0.84 0.94 1.03 1.07 0.94 0.90 0.98 1.09 1.11 1.06 1.07 1.17 1.31 1.43 1.48 1.83 2.18 2.38
0.43 0.42 0.44 0.44 0.43 0.39 0.39 0.42 0.50 0.64 0.88 1.14 1.12 0.92 0.76 0.64 0.59 0.62 0.63 0.62 0.60 0.64 0.70 0.68 0.69 0.78 0.80 0.96 0.96 0.81 0.79 0.84 0.94 1.02 0.98 0.86 0.84 0.90 1.00 1.09 1.26 1.53 1.78
0.32 0.31 0.31 0.30 0.30 0.30 0.29 0.32 0.39 0.50 0.67 0.79 0.77 0.68 0.57 0.54 0.58 0.61 0.57 0.58 0.60 0.60 0.62 0.62 0.61 0.64 0.77 0.82 0.68 0.68 0.72 0.79 0.84 0.90 0.95 0.85 0.73 0.81 0.86 0.97 1.06 1.05 1.13
0.23 0.22 0.22 0.22 0.26 0.27 0.31 0.35 0.40 0.45 0.49 0.52 0.54 0.50 0.48 0.49 0.53 0.54 0.54 0.62 0.67 0.65 0.65 0.67 0.65 0.63 0.70 0.70 0.57 0.63 0.65 0.69 0.75 0.84 0.93 0.96 0.88 0.87 0.98 0.98 1.02 0.96 0.91
0.15 0.14 0.13 0.13 0.16 0.16 0.17 0.18 0.21 0.23 0.24 0.23 0.24 0.26 0.26 0.29 0.31 0.32 0.38 0.50 0.58 0.61 0.66 0.71 0.71 0.64 0.62 0.67 0.57 0.58 0.62 0.66 0.71 0.74 0.81 0.89 0.85 1.00 1.10 1.08 1.20 1.18 1.05
0.12 0.11 0.10 0.11 0.13 0.13 0.12 0.11 0.12 0.12 0.13 0.13 0.14 0.17 0.19 0.18 0.18 0.22 0.27 0.33 0.34 0.40 0.51 0.54 0.56 0.60 0.58 0.75 0.65 0.63 0.63 0.69 0.79 0.82 0.80 0.95 0.96 1.06 1.04 0.99 1.22 1.23 1.11
0.12 0.12 0.12 0.11 0.12 0.14 0.13 0.12 0.12 0.12 0.14 0.17 0.20 0.20 0.20 0.21 0.22 0.24 0.26 0.28 0.28 0.33 0.37 0.40 0.45 0.52 0.61 0.76 0.76 0.78 0.75 0.79 0.92 0.90 0.82 0.78 0.91 0.80 0.88 0.92 0.93 1.15 1.16
0.12 0.13 0.12 0.12 0.13 0.13 0.13 0.13 0.14 0.14 0.15 0.17 0.19 0.21 0.22 0.23 0.24 0.25 0.28 0.31 0.31 0.30 0.31 0.32 0.36 0.43 0.50 0.59 0.67 0.68 0.72 0.80 0.88 0.92 0.81 0.79 0.88 0.72 0.70 0.72 0.82 1.01 1.13
0.10 0.11 0.12 0.12 0.14 0.14 0.13 0.13 0.15 0.16 0.17 0.17 0.18 0.21 0.23 0.23 0.21 0.23 0.27 0.29 0.31 0.32 0.33 0.36 0.40 0.46 0.51 0.54 0.55 0.53 0.56 0.62 0.69 0.72 0.77 0.78 0.76 0.70 0.65 0.66 0.75 0.83 0.92
0.10 0.10 0.12 0.14 0.15 0.16 0.15 0.17 0.17 0.17 0.16 0.18 0.20 0.21 0.21 0.21 0.21 0.22 0.24 0.26 0.29 0.32 0.36 0.41 0.45 0.50 0.53 0.54 0.53 0.57 0.60 0.58 0.58 0.58 0.58 0.60 0.64 0.67 0.64 0.64 0.69 0.76 0.87
0.12 0.14 0.15 0.15 0.16 0.17 0.19 0.22 0.22 0.20 0.17 0.18 0.19 0.19 0.19 0.20 0.21 0.21 0.22 0.23 0.24 0.31 0.40 0.45 0.49 0.48 0.47 0.46 0.49 0.59 0.67 0.74 0.78 0.82 0.73 0.71 0.72 0.69 0.65 0.62 0.64 0.70 0.78
0.13 0.15 0.17 0.18 0.17 0.17 0.19 0.21 0.24 0.25 0.25 0.22 0.20 0.18 0.18 0.19 0.19 0.20 0.21 0.23 0.25 0.31 0.34 0.35 0.37 0.37 0.39 0.42 0.44 0.49 0.59 0.68 0.82 0.96 0.94 0.95 0.96 0.91 0.81 0.71 0.64 0.61 0.64

GEFSMW_prec_meanprecacc_276.txt.gz
Total_Precipitation_Accumulation
0.46 0.43 0.38 0.39 0.44 0.47 0.52 0.61 0.69 0.87 0.98 1.03 1.15 1.34 1.51 1.67 1.82 1.90 1.78 1.62 1.60 1.78 1.92 1.84 1.91 1.92 1.80 1.81 1.87 1.91 1.87 1.66 1.52 1.58 1.47 1.19 0.94 1.00 0.97 0.92 0.95 1.02 1.12
0.31 0.29 0.26 0.28 0.29 0.31 0.36 0.45 0.54 0.62 0.76 0.93 1.18 1.38 1.67 1.74 1.81 1.94 1.98 1.89 1.83 2.01 2.05 2.12 2.20 2.22 2.21 2.16 2.05 2.18 2.33 2.05 1.79 1.89 2.19 1.81 1.39 1.01 0.80 0.87 0.91 1.01 1.25
0.20 0.16 0.17 0.20 0.24 0.24 0.25 0.34 0.46 0.59 0.82 1.05 1.39 1.68 1.96 2.04 2.08 2.02 2.05 2.10 2.14 2.22 2.26 2.31 2.36 2.37 2.21 2.20 2.30 2.45 2.80 2.60 2.21 1.99 2.26 2.12 1.80 1.46 1.01 0.90 0.94 1.03 1.20
0.19 0.16 0.17 0.18 0.20 0.23 0.29 0.41 0.59 0.79 1.06 1.38 1.76 2.04 2.30 2.42 2.26 2.20 2.19 2.17 2.13 2.17 2.28 2.29 2.27 2.24 2.18 2.23 2.29 2.35 2.77 2.99 2.69 2.32 1.92 1.72 1.69 1.77 1.48 1.08 1.00 1.08 1.09
0.24 0.21 0.23 0.24 0.29 0.38 0.46 0.64 0.90 1.20 1.47 1.70 1.90 2.14 2.29 2.30 2.25 2.18 2.17 2.09 2.05 2.03 2.05 2.06 2.15 2.17 2.22 2.27 2.42 2.54 2.82 2.85 2.84 2.64 2.42 2.20 1.88 1.54 1.62 1.55 1.27 1.19 1.09
0.29 0.29 0.31 0.39 0.47 0.55 0.70 0.88 1.08 1.38 1.57 1.70 1.80 1.96 2.12 2.17 2.17 2.15 2.16 2.16 2.13 2.02 1.94 1.88 1.96 2.09 2.23 2.28 2.38 2.53 2.77 2.88 2.95 2.86 2.58 2.49 2.33 2.04 1.91 1.65 1.49 1.48 1.25
0.39 0.40 0.50 0.64 0.71 0.76 0.87 1.04 1.14 1.33 1.44 1.49 1.59 1.72 1.79 1.83 1.86 1.86 1.85 1.78 1.75 1.75 1.80 1.86 1.93 2.05 2.13 2.20 2.33 2.47 2.52 2.63 2.87 2.88 2.69 2.47 2.29 2.27 2.14 2.01 1.69 1.51 1.31
0.56 0.66 0.80 0.89 0.96 0.99 0.97 1.03 1.17 1.21 1.20 1.25 1.25 1.36 1.45 1.51 1.55 1.52 1.52 1.57 1.61 1.64 1.60 1.64 1.72 1.93 2.10 2.17 2.26 2.27 2.25 2.30 2.49 2.49 2.56 2.52 2.24 2.20 2.09 2.07 2.14 1.87 1.65
0.80 1.03 1.20 1.30 1.38 1.32 1.16 1.04 1.04 1.02 1.01 1.11 1.17 1.22 1.28 1.31 1.32 1.33 1.27 1.37 1.42 1.42 1.38 1.42 1.45 1.57 1.78 2.01 2.15 2.11 2.02 1.99 2.15 2.21 2.29 2.42 2.46 2.36 2.25 2.21 2.27 2.23 1.98
1.23 1.50 1.73 1.85 1.83 1.64 1.39 1.14 0.98 0.93 0.90 0.97 1.07 1.16 1.16 1.16 1.13 1.15 1.07 1.13 1.23 1.22 1.19 1.20 1.27 1.42 1.54 1.73 1.94 2.03 1.96 1.94 2.01 2.11 2.24 2.37 2.49 2.53 2.32 2.27 2.25 2.11 2.04
1.66 1.82 1.99 2.04 1.78 1.60 1.37 1.11 0.96 0.97 0.99 1.03 1.07 1.10 1.06 1.03 1.01 0.97 0.92 0.96 1.04 1.03 1.03 1.19 1.25 1.32 1.41 1.61 1.87 2.04 2.04 1.96 1.97 1.93 2.00 2.18 2.29 2.50 2.48 2.38 2.26 2.12 1.96
1.43 1.52 1.60 1.57 1.53 1.48 1.30 1.14 1.05 1.04 1.09 1.12 1.16 1.11 1.04 0.98 0.97 0.93 0.84 0.83 0.79 0.77 0.88 1.01 1.04 1.10 1.16 1.36 1.64 1.84 1.88 1.84 1.75 1.72 1.83 2.04 2.21 2.43 2.55 2.51 2.35 2.24 2.09
1.25 1.24 1.26 1.33 1.36 1.32 1.20 1.17 1.14 1.16 1.16 1.15 1.07 1.01 0.95 0.87 0.83 0.73 0.66 0.73 0.73 0.79 0.89 0.97 1.03 1.06 1.11 1.16 1.28 1.45 1.57 1.56 1.49 1.51 1.57 1.60 1.79 2.07 2.27 2.29 2.32 2.35 2.32
0.99 0.99 1.06 1.15 1.21 1.19 1.15 1.10 1.06 1.10 1.20 1.27 1.19 1.09 0.98 0.89 0.85 0.75 0.66 0.64 0.67 0.75 0.84 0.89 0.96 1.04 1.09 1.09 1.11 1.15 1.21 1.22 1.29 1.35 1.37 1.40 1.45 1.67 1.85 1.94 2.13 2.38 2.41
0.67 0.72 0.78 0.79 0.76 0.72 0.77 0.82 0.88 0.98 1.13 1.27 1.26 1.13 0.96 0.86 0.81 0.78 0.69 0.66 0.66 0.66 0.75 0.80 0.81 0.85 0.95 1.06 1.09 0.98 0.95 1.04 1.15 1.16 1.10 1.12 1.21 1.35 1.46 1.51 1.86 2.23 2.43
0.43 0.42 0.44 0.44 0.43 0.40 0.39 0.42 0.50 0.65 0.88 1.14 1.12 0.93 0.77 0.64 0.60 0.63 0.65 0.65 0.62 0.65 0.70 0.68 0.70 0.78 0.81 0.99 0.99 0.83 0.82 0.89 0.99 1.07 1.03 0.91 0.90 0.94 1.05 1.12 1.28 1.56 1.82
0.32 0.31 0.31 0.31 0.30 0.30 0.29 0.32 0.39 0.51 0.68 0.79 0.78 0.68 0.58 0.55 0.59 0.62 0.57 0.59 0.62 0.62 0.63 0.63 0.62 0.65 0.78 0.84 0.70 0.71 0.74 0.81 0.88 0.95 1.00 0.90 0.78 0.86 0.91 1.01 1.08 1.07 1.15
0.23 0.22 0.22 0.22 0.26 0.28 0.31 0.35 0.41 0.46 0.50 0.53 0.55 0.50 0.48 0.49 0.53 0.55 0.55 0.62 0.68 0.66 0.66 0.68 0.66 0.65 0.72 0.72 0.59 0.64 0.66 0.70 0.77 0.88 0.98 1.02 0.93 0.92 1.03 1.03 1.05 0.98 0.92
0.16 0.15 0.14 0.14 0.16 0.16 0.17 0.19 0.21 0.23 0.24 0.23 0.24 0.26 0.26 0.29 0.31 0.33 0.40 0.52 0.59 0.62 0.67 0.72 0.72 0.65 0.64 0.68 0.59 0.60 0.63 0.67 0.72 0.75 0.84 0.92 0.89 1.06 1.17 1.13 1.25 1.22 1.07
0.15 0.14 0.11 0.12 0.13 0.13 0.13 0.11 0.12 0.12 0.13 0.13 0.14 0.17 0.19 0.19 0.18 0.22 0.27 0.33 0.34 0.41 0.51 0.54 0.56 0.60 0.59 0.77 0.67 0.66 0.65 0.70 0.80 0.83 0.82 0.98 1.00 1.11 1.11 1.05 1.26 1.28 1.15
0.14 0.15 0.13 0.12 0.13 0.14 0.13 0.12 0.12 0.12 0.14 0.17 0.20 0.21 0.20 0.21 0.22 0.24 0.26 0.28 0.29 0.33 0.37 0.41 0.45 0.53 0.62 0.78 0.78 0.81 0.77 0.82 0.95 0.92 0.84 0.80 0.94 0.84 0.93 0.97 0.97 1.19 1.21
0.13 0.15 0.14 0.14 0.15 0.14 0.13 0.14 0.14 0.15 0.15 0.17 0.19 0.21 0.23 0.23 0.24 0.25 0.29 0.31 0.32 0.31 0.32 0.33 0.37 0.44 0.51 0.62 0.69 0.71 0.75 0.84 0.91 0.95 0.83 0.81 0.91 0.76 0.74 0.76 0.87 1.07 1.18
0.13 0.13 0.14 0.14 0.14 0.14 0.13 0.13 0.15 0.16 0.17 0.18 0.18 0.21 0.23 0.23 0.21 0.24 0.28 0.30 0.32 0.33 0.35 0.38 0.43 0.48 0.53 0.56 0.57 0.55 0.58 0.66 0.72 0.75 0.80 0.80 0.77 0.72 0.67 0.68 0.78 0.86 0.97
0.12 0.12 0.13 0.14 0.15 0.16 0.16 0.17 0.17 0.17 0.16 0.18 0.20 0.21 0.21 0.21 0.21 0.23 0.26 0.28 0.31 0.34 0.38 0.43 0.47 0.52 0.55 0.57 0.56 0.59 0.63 0.62 0.61 0.61 0.61 0.62 0.65 0.68 0.65 0.65 0.71 0.78 0.89
0.13 0.15 0.16 0.15 0.16 0.18 0.19 0.23 0.23 0.20 0.18 0.18 0.19 0.19 0.19 0.20 0.21 0.22 0.24 0.24 0.26 0.33 0.41 0.47 0.51 0.50 0.48 0.48 0.52 0.62 0.70 0.78 0.83 0.87 0.76 0.74 0.74 0.72 0.66 0.63 0.66 0.72 0.80
0.14 0.16 0.18 0.18 0.17 0.18 0.20 0.22 0.25 0.26 0.26 0.23 0.21 0.19 0.19 0.20 0.21 0.22 0.23 0.25 0.26 0.32 0.35 0.37 0.38 0.39 0.41 0.43 0.46 0.51 0.61 0.71 0.85 1.00 0.97 0.98 0.99 0.93 0.84 0.73 0.66 0.63 0.66